Time,TemperatureF,DewpointF,PressureIn,WindDirection,WindDirectionDegrees,WindSpeedMPH,WindSpeedGustMPH,Humidity,HourlyPrecipIn,Conditions,Clouds,dailyrainin,SoftwareType,DateUTC
2013-01-31 00:00:00,58.0,31.0,30.22,East,90,8.0,9.0,37,0.00,,,0.00,TxWx,2013-01-31 06:00:00,
2013-01-31 00:01:00,58.0,32.0,30.22,ESE,112,6.0,8.0,38,0.00,,,0.00,TxWx,2013-01-31 06:01:00,
2013-01-31 00:05:00,58.0,30.0,30.21,ENE,67,6.0,8.0,36,0.00,,,0.00,TxWx,2013-01-31 06:05:00,
2013-01-31 00:06:00,58.0,30.0,30.21,NE,45,6.0,9.0,36,0.00,,,0.00,TxWx,2013-01-31 06:06:00,
2013-01-31 00:07:00,58.0,31.0,30.21,SE,135,4.0,5.0,37,0.00,,,0.00,TxWx,2013-01-31 06:07:00,
2013-01-31 00:11:00,58.0,29.0,30.22,ENE,67,8.0,10.0,35,0.00,,,0.00,TxWx,2013-01-31 06:11:00,
2013-01-31 00:12:00,58.0,29.0,30.21,ENE,67,7.0,8.0,34,0.00,,,0.00,TxWx,2013-01-31 06:12:00,
2013-01-31 00:13:00,58.0,30.0,30.22,ENE,67,7.0,7.0,37,0.00,,,0.00,TxWx,2013-01-31 06:13:00,
2013-01-31 00:16:00,58.0,29.0,30.22,East,90,5.0,10.0,35,0.00,,,0.00,TxWx,2013-01-31 06:16:00,
2013-01-31 00:17:00,58.0,28.0,30.22,ENE,67,8.0,8.0,33,0.00,,,0.00,TxWx,2013-01-31 06:17:00,
2013-01-31 00:19:00,58.0,28.0,30.22,ESE,112,5.0,5.0,33,0.00,,,0.00,TxWx,2013-01-31 06:19:00,
2013-01-31 00:22:00,58.0,29.0,30.22,East,90,6.0,8.0,34,0.00,,,0.00,TxWx,2013-01-31 06:22:00,
2013-01-31 00:23:00,58.0,29.0,30.22,ENE,67,8.0,10.0,34,0.00,,,0.00,TxWx,2013-01-31 06:23:00,
2013-01-31 00:25:00,58.0,29.0,30.22,NNE,22,6.0,6.0,35,0.00,,,0.00,TxWx,2013-01-31 06:25:00,
2013-01-31 00:29:00,58.0,29.0,30.22,East,90,8.0,8.0,34,0.00,,,0.00,TxWx,2013-01-31 06:29:00,
2013-01-31 00:30:00,58.0,30.0,30.22,NNE,22,4.0,5.0,36,0.00,,,0.00,TxWx,2013-01-31 06:30:00,
2013-01-31 00:31:00,58.0,31.0,30.22,East,90,11.0,11.0,37,0.00,,,0.00,TxWx,2013-01-31 06:31:00,
2013-01-31 00:34:00,58.0,30.0,30.22,ESE,112,5.0,5.0,36,0.00,,,0.00,TxWx,2013-01-31 06:34:00,
2013-01-31 00:35:00,58.0,29.0,30.22,ENE,67,8.0,8.0,35,0.00,,,0.00,TxWx,2013-01-31 06:35:00,
2013-01-31 00:37:00,58.0,29.0,30.22,NE,45,8.0,8.0,35,0.00,,,0.00,TxWx,2013-01-31 06:37:00,
2013-01-31 00:39:00,58.0,29.0,30.22,NE,45,8.0,10.0,35,0.00,,,0.00,TxWx,2013-01-31 06:39:00,
2013-01-31 00:41:00,58.0,28.0,30.22,East,90,6.0,8.0,34,0.00,,,0.00,TxWx,2013-01-31 06:41:00,
2013-01-31 00:43:00,58.0,30.0,30.22,East,90,8.0,8.0,36,0.00,,,0.00,TxWx,2013-01-31 06:43:00,
2013-01-31 00:45:00,57.0,28.0,30.21,ENE,67,5.0,6.0,34,0.00,,,0.00,TxWx,2013-01-31 06:45:00,
2013-01-31 00:46:00,57.0,28.0,30.22,NE,45,5.0,6.0,34,0.00,,,0.00,TxWx,2013-01-31 06:46:00,
2013-01-31 00:48:00,57.0,27.0,30.21,NE,45,9.0,10.0,34,0.00,,,0.00,TxWx,2013-01-31 06:48:00,
2013-01-31 00:50:00,58.0,28.0,30.21,East,90,5.0,5.0,33,0.00,,,0.00,TxWx,2013-01-31 06:50:00,
2013-01-31 00:52:00,58.0,29.0,30.21,ENE,67,7.0,7.0,34,0.00,,,0.00,TxWx,2013-01-31 06:52:00,
2013-01-31 00:53:00,57.0,29.0,30.21,NE,45,6.0,6.0,35,0.00,,,0.00,TxWx,2013-01-31 06:53:00,
2013-01-31 00:55:00,57.0,28.0,30.21,ENE,67,3.0,4.0,35,0.00,,,0.00,TxWx,2013-01-31 06:55:00,
2013-01-31 00:57:00,57.0,28.0,30.21,ENE,67,4.0,5.0,35,0.00,,,0.00,TxWx,2013-01-31 06:57:00,
2013-01-31 00:59:00,57.0,27.0,30.21,SSE,157,3.0,5.0,34,0.00,,,0.00,TxWx,2013-01-31 06:59:00,
2013-01-31 01:00:00,58.0,28.0,30.21,ENE,67,5.0,5.0,34,0.00,,,0.00,TxWx,2013-01-31 07:00:00,
2013-01-31 01:02:00,58.0,28.0,30.22,East,90,7.0,8.0,34,0.00,,,0.00,TxWx,2013-01-31 07:02:00,
2013-01-31 01:04:00,58.0,30.0,30.21,East,90,5.0,5.0,36,0.00,,,0.00,TxWx,2013-01-31 07:04:00,
2013-01-31 01:05:00,58.0,30.0,30.21,ESE,112,8.0,11.0,37,0.00,,,0.00,TxWx,2013-01-31 07:05:00,
2013-01-31 01:08:00,57.0,27.0,30.22,East,90,6.0,7.0,34,0.00,,,0.00,TxWx,2013-01-31 07:08:00,
2013-01-31 01:10:00,58.0,29.0,30.22,East,90,8.0,10.0,34,0.00,,,0.00,TxWx,2013-01-31 07:10:00,
2013-01-31 01:11:00,57.0,28.0,30.22,East,90,10.0,10.0,35,0.00,,,0.00,TxWx,2013-01-31 07:11:00,
2013-01-31 01:14:00,57.0,29.0,30.22,East,90,10.0,10.0,36,0.00,,,0.00,TxWx,2013-01-31 07:14:00,
2013-01-31 01:15:00,58.0,28.0,30.22,ENE,67,6.0,6.0,33,0.00,,,0.00,TxWx,2013-01-31 07:15:00,
2013-01-31 01:17:00,57.0,27.0,30.22,NE,45,10.0,10.0,33,0.00,,,0.00,TxWx,2013-01-31 07:17:00,
2013-01-31 01:19:00,57.0,26.0,30.22,ESE,112,8.0,9.0,32,0.00,,,0.00,TxWx,2013-01-31 07:19:00,
2013-01-31 01:21:00,57.0,27.0,30.22,East,90,10.0,10.0,33,0.00,,,0.00,TxWx,2013-01-31 07:21:00,
2013-01-31 01:22:00,57.0,27.0,30.22,ESE,112,6.0,7.0,34,0.00,,,0.00,TxWx,2013-01-31 07:22:00,
2013-01-31 01:23:00,57.0,27.0,30.22,ENE,67,7.0,7.0,34,0.00,,,0.00,TxWx,2013-01-31 07:23:00,
2013-01-31 01:26:00,57.0,26.0,30.22,NNE,22,11.0,11.0,32,0.00,,,0.00,TxWx,2013-01-31 07:26:00,
2013-01-31 01:27:00,57.0,27.0,30.22,East,90,8.0,8.0,33,0.00,,,0.00,TxWx,2013-01-31 07:27:00,
2013-01-31 01:28:00,57.0,28.0,30.22,East,90,7.0,8.0,35,0.00,,,0.00,TxWx,2013-01-31 07:28:00,
2013-01-31 01:31:00,57.0,28.0,30.22,East,90,4.0,5.0,35,0.00,,,0.00,TxWx,2013-01-31 07:31:00,
2013-01-31 01:32:00,57.0,29.0,30.22,ENE,67,7.0,7.0,36,0.00,,,0.00,TxWx,2013-01-31 07:32:00,
2013-01-31 01:33:00,57.0,29.0,30.22,ENE,67,6.0,6.0,36,0.00,,,0.00,TxWx,2013-01-31 07:33:00,
2013-01-31 01:37:00,57.0,27.0,30.22,NE,45,11.0,12.0,33,0.00,,,0.00,TxWx,2013-01-31 07:37:00,
2013-01-31 01:38:00,57.0,27.0,30.22,ENE,67,6.0,6.0,33,0.00,,,0.00,TxWx,2013-01-31 07:38:00,
2013-01-31 01:39:00,57.0,27.0,30.22,NE,45,6.0,6.0,33,0.00,,,0.00,TxWx,2013-01-31 07:39:00,
2013-01-31 01:43:00,57.0,29.0,30.22,NE,45,8.0,8.0,36,0.00,,,0.00,TxWx,2013-01-31 07:43:00,
2013-01-31 01:44:00,57.0,30.0,30.22,East,90,11.0,11.0,38,0.00,,,0.00,TxWx,2013-01-31 07:44:00,
2013-01-31 01:48:00,57.0,33.0,30.22,NE,45,5.0,6.0,40,0.00,,,0.00,TxWx,2013-01-31 07:48:00,
2013-01-31 01:49:00,57.0,33.0,30.22,East,90,10.0,10.0,40,0.00,,,0.00,TxWx,2013-01-31 07:49:00,
2013-01-31 01:50:00,57.0,32.0,30.22,SE,135,5.0,5.0,39,0.00,,,0.00,TxWx,2013-01-31 07:50:00,
2013-01-31 01:52:00,57.0,33.0,30.22,ESE,112,9.0,10.0,40,0.00,,,0.00,TxWx,2013-01-31 07:52:00,
2013-01-31 01:54:00,57.0,33.0,30.22,ESE,112,9.0,9.0,41,0.00,,,0.00,TxWx,2013-01-31 07:54:00,
2013-01-31 01:55:00,57.0,33.0,30.22,East,90,11.0,12.0,41,0.00,,,0.00,TxWx,2013-01-31 07:55:00,
2013-01-31 01:56:00,57.0,33.0,30.22,ENE,67,8.0,8.0,41,0.00,,,0.00,TxWx,2013-01-31 07:56:00,
2013-01-31 01:59:00,57.0,33.0,30.22,ENE,67,8.0,8.0,41,0.00,,,0.00,TxWx,2013-01-31 07:59:00,
2013-01-31 02:01:00,57.0,33.0,30.22,ENE,67,5.0,6.0,40,0.00,,,0.00,TxWx,2013-01-31 08:01:00,
2013-01-31 02:04:00,57.0,31.0,30.22,North,0,4.0,4.0,39,0.00,,,0.00,TxWx,2013-01-31 08:04:00,
2013-01-31 02:05:00,57.0,33.0,30.21,East,90,7.0,8.0,40,0.00,,,0.00,TxWx,2013-01-31 08:05:00,
2013-01-31 02:06:00,57.0,33.0,30.21,ESE,112,5.0,6.0,40,0.00,,,0.00,TxWx,2013-01-31 08:06:00,
2013-01-31 02:07:00,57.0,33.0,30.21,ENE,67,6.0,6.0,40,0.00,,,0.00,TxWx,2013-01-31 08:07:00,
2013-01-31 02:10:00,57.0,29.0,30.21,East,90,5.0,5.0,36,0.00,,,0.00,TxWx,2013-01-31 08:10:00,
2013-01-31 02:11:00,57.0,28.0,30.21,ESE,112,10.0,10.0,35,0.00,,,0.00,TxWx,2013-01-31 08:11:00,
2013-01-31 02:13:00,57.0,29.0,30.21,East,90,6.0,7.0,36,0.00,,,0.00,TxWx,2013-01-31 08:13:00,
2013-01-31 02:16:00,57.0,29.0,30.21,ESE,112,6.0,6.0,35,0.00,,,0.00,TxWx,2013-01-31 08:16:00,
2013-01-31 02:17:00,57.0,29.0,30.21,ENE,67,7.0,7.0,36,0.00,,,0.00,TxWx,2013-01-31 08:17:00,
2013-01-31 02:18:00,57.0,28.0,30.21,East,90,8.0,8.0,35,0.00,,,0.00,TxWx,2013-01-31 08:18:00,
2013-01-31 02:19:00,57.0,28.0,30.21,ESE,112,10.0,10.0,34,0.00,,,0.00,TxWx,2013-01-31 08:19:00,
2013-01-31 02:22:00,57.0,28.0,30.21,ESE,112,10.0,10.0,35,0.00,,,0.00,TxWx,2013-01-31 08:22:00,
2013-01-31 02:23:00,57.0,27.0,30.21,ESE,112,12.0,12.0,33,0.00,,,0.00,TxWx,2013-01-31 08:23:00,
2013-01-31 02:24:00,58.0,27.0,30.21,ESE,112,8.0,9.0,32,0.00,,,0.00,TxWx,2013-01-31 08:24:00,
2013-01-31 02:25:00,58.0,28.0,30.21,ESE,112,10.0,10.0,33,0.00,,,0.00,TxWx,2013-01-31 08:25:00,
2013-01-31 02:27:00,57.0,29.0,30.21,ESE,112,8.0,9.0,36,0.00,,,0.00,TxWx,2013-01-31 08:27:00,
2013-01-31 02:28:00,57.0,28.0,30.21,East,90,9.0,9.0,35,0.00,,,0.00,TxWx,2013-01-31 08:28:00,
2013-01-31 02:30:00,58.0,28.0,30.21,ESE,112,8.0,8.0,34,0.00,,,0.00,TxWx,2013-01-31 08:30:00,
2013-01-31 02:31:00,58.0,30.0,30.21,East,90,8.0,8.0,36,0.00,,,0.00,TxWx,2013-01-31 08:31:00,
2013-01-31 02:32:00,57.0,29.0,30.21,East,90,6.0,7.0,36,0.00,,,0.00,TxWx,2013-01-31 08:32:00,
2013-01-31 02:35:00,58.0,33.0,30.21,ESE,112,7.0,7.0,39,0.00,,,0.00,TxWx,2013-01-31 08:35:00,
2013-01-31 02:38:00,57.0,31.0,30.21,SE,135,7.0,8.0,38,0.00,,,0.00,TxWx,2013-01-31 08:38:00,
2013-01-31 02:39:00,58.0,32.0,30.21,ESE,112,9.0,10.0,38,0.00,,,0.00,TxWx,2013-01-31 08:39:00,
2013-01-31 02:41:00,58.0,30.0,30.21,ESE,112,8.0,10.0,36,0.00,,,0.00,TxWx,2013-01-31 08:41:00,
2013-01-31 02:42:00,58.0,32.0,30.21,East,90,8.0,8.0,38,0.00,,,0.00,TxWx,2013-01-31 08:42:00,
2013-01-31 02:44:00,57.0,33.0,30.21,ESE,112,5.0,5.0,40,0.00,,,0.00,TxWx,2013-01-31 08:44:00,
2013-01-31 02:45:00,57.0,33.0,30.21,ENE,67,6.0,6.0,40,0.00,,,0.00,TxWx,2013-01-31 08:45:00,
2013-01-31 02:48:00,57.0,33.0,30.21,ENE,67,8.0,10.0,40,0.00,,,0.00,TxWx,2013-01-31 08:48:00,
2013-01-31 02:50:00,57.0,33.0,30.21,East,90,8.0,8.0,41,0.00,,,0.00,TxWx,2013-01-31 08:50:00,
2013-01-31 02:53:00,57.0,33.0,30.21,ESE,112,5.0,5.0,40,0.00,,,0.00,TxWx,2013-01-31 08:53:00,
2013-01-31 02:55:00,57.0,30.0,30.21,ENE,67,8.0,8.0,38,0.00,,,0.00,TxWx,2013-01-31 08:55:00,
2013-01-31 02:57:00,57.0,31.0,30.21,East,90,8.0,8.0,38,0.00,,,0.00,TxWx,2013-01-31 08:57:00,
2013-01-31 02:59:00,57.0,30.0,30.21,ESE,112,6.0,6.0,38,0.00,,,0.00,TxWx,2013-01-31 08:59:00,
2013-01-31 03:00:00,57.0,33.0,30.21,ESE,112,6.0,8.0,40,0.00,,,0.00,TxWx,2013-01-31 09:00:00,
2013-01-31 03:04:00,57.0,34.0,30.21,East,90,8.0,10.0,43,0.00,,,0.00,TxWx,2013-01-31 09:04:00,
2013-01-31 03:06:00,57.0,34.0,30.21,ESE,112,5.0,5.0,42,0.00,,,0.00,TxWx,2013-01-31 09:06:00,
2013-01-31 03:07:00,57.0,35.0,30.21,East,90,6.0,7.0,43,0.00,,,0.00,TxWx,2013-01-31 09:07:00,
2013-01-31 03:11:00,57.0,33.0,30.22,ENE,67,4.0,4.0,41,0.00,,,0.00,TxWx,2013-01-31 09:11:00,
2013-01-31 03:12:00,57.0,34.0,30.22,ESE,112,8.0,8.0,42,0.00,,,0.00,TxWx,2013-01-31 09:12:00,
2013-01-31 03:13:00,57.0,34.0,30.22,ESE,112,7.0,8.0,42,0.00,,,0.00,TxWx,2013-01-31 09:13:00,
2013-01-31 03:17:00,57.0,34.0,30.22,SE,135,5.0,5.0,42,0.00,,,0.00,TxWx,2013-01-31 09:17:00,
2013-01-31 03:18:00,57.0,33.0,30.22,SE,135,5.0,5.0,41,0.00,,,0.00,TxWx,2013-01-31 09:18:00,
2013-01-31 03:21:00,57.0,34.0,30.21,SE,135,6.0,6.0,42,0.00,,,0.00,TxWx,2013-01-31 09:21:00,
2013-01-31 03:23:00,57.0,33.0,30.21,SE,135,8.0,8.0,41,0.00,,,0.00,TxWx,2013-01-31 09:23:00,
2013-01-31 03:25:00,57.0,33.0,30.21,SSE,157,5.0,6.0,41,0.00,,,0.00,TxWx,2013-01-31 09:25:00,
2013-01-31 03:26:00,57.0,33.0,30.21,East,90,6.0,7.0,40,0.00,,,0.00,TxWx,2013-01-31 09:26:00,
2013-01-31 03:28:00,57.0,33.0,30.21,SE,135,9.0,9.0,40,0.00,,,0.00,TxWx,2013-01-31 09:28:00,
2013-01-31 03:29:00,57.0,33.0,30.21,SE,135,2.0,3.0,40,0.00,,,0.00,TxWx,2013-01-31 09:29:00,
2013-01-31 03:32:00,57.0,33.0,30.22,SE,135,5.0,5.0,40,0.00,,,0.00,TxWx,2013-01-31 09:32:00,
2013-01-31 03:33:00,57.0,33.0,30.22,SE,135,4.0,4.0,41,0.00,,,0.00,TxWx,2013-01-31 09:33:00,
2013-01-31 03:34:00,57.0,34.0,30.22,ESE,112,8.0,8.0,42,0.00,,,0.00,TxWx,2013-01-31 09:34:00,
2013-01-31 03:38:00,57.0,35.0,30.21,SSE,157,5.0,6.0,43,0.00,,,0.00,TxWx,2013-01-31 09:38:00,
2013-01-31 03:39:00,57.0,35.0,30.22,ESE,112,6.0,6.0,44,0.00,,,0.00,TxWx,2013-01-31 09:39:00,
2013-01-31 03:40:00,57.0,35.0,30.21,SE,135,6.0,6.0,43,0.00,,,0.00,TxWx,2013-01-31 09:40:00,
2013-01-31 03:43:00,57.0,34.0,30.21,SSE,157,4.0,4.0,42,0.00,,,0.00,TxWx,2013-01-31 09:43:00,
2013-01-31 03:44:00,57.0,34.0,30.22,SSW,202,3.0,3.0,43,0.00,,,0.00,TxWx,2013-01-31 09:44:00,
2013-01-31 03:45:00,56.0,32.0,30.22,SW,225,3.0,4.0,41,0.00,,,0.00,TxWx,2013-01-31 09:45:00,
2013-01-31 03:47:00,56.0,33.0,30.22,SW,225,3.0,3.0,41,0.00,,,0.00,TxWx,2013-01-31 09:47:00,
2013-01-31 03:49:00,55.0,31.0,30.22,SW,225,3.0,4.0,42,0.00,,,0.00,TxWx,2013-01-31 09:49:00,
2013-01-31 03:50:00,54.0,31.0,30.21,SW,225,4.0,4.0,43,0.00,,,0.00,TxWx,2013-01-31 09:50:00,
2013-01-31 03:51:00,54.0,31.0,30.21,SW,225,4.0,4.0,43,0.00,,,0.00,TxWx,2013-01-31 09:51:00,
2013-01-31 03:53:00,54.0,33.0,30.21,SW,225,3.0,3.0,44,0.00,,,0.00,TxWx,2013-01-31 09:53:00,
2013-01-31 03:54:00,54.0,33.0,30.21,WSW,247,3.0,3.0,44,0.00,,,0.00,TxWx,2013-01-31 09:54:00,
2013-01-31 03:56:00,53.0,31.0,30.21,WSW,247,3.0,3.0,45,0.00,,,0.00,TxWx,2013-01-31 09:56:00,
2013-01-31 03:57:00,53.0,31.0,30.21,SW,225,3.0,4.0,45,0.00,,,0.00,TxWx,2013-01-31 09:57:00,
2013-01-31 04:00:00,53.0,32.0,30.21,SW,225,4.0,4.0,45,0.00,,,0.00,TxWx,2013-01-31 10:00:00,
2013-01-31 04:01:00,52.0,30.0,30.21,WSW,247,4.0,4.0,45,0.00,,,0.00,TxWx,2013-01-31 10:01:00,
2013-01-31 04:02:00,52.0,30.0,30.21,SSW,202,3.0,3.0,45,0.00,,,0.00,TxWx,2013-01-31 10:02:00,
2013-01-31 04:05:00,52.0,30.0,30.21,SW,225,4.0,4.0,45,0.00,,,0.00,TxWx,2013-01-31 10:05:00,
2013-01-31 04:07:00,52.0,31.0,30.21,WSW,247,3.0,3.0,46,0.00,,,0.00,TxWx,2013-01-31 10:07:00,
2013-01-31 04:08:00,52.0,31.0,30.22,SW,225,3.0,3.0,46,0.00,,,0.00,TxWx,2013-01-31 10:08:00,
2013-01-31 04:09:00,52.0,31.0,30.22,SW,225,4.0,4.0,46,0.00,,,0.00,TxWx,2013-01-31 10:09:00,
2013-01-31 04:10:00,51.0,30.0,30.22,WSW,247,3.0,3.0,46,0.00,,,0.00,TxWx,2013-01-31 10:10:00,
2013-01-31 04:13:00,51.0,30.0,30.22,West,270,4.0,4.0,46,0.00,,,0.00,TxWx,2013-01-31 10:13:00,
2013-01-31 04:14:00,51.0,30.0,30.22,WSW,247,3.0,3.0,47,0.00,,,0.00,TxWx,2013-01-31 10:14:00,
2013-01-31 04:15:00,51.0,30.0,30.22,WSW,247,4.0,4.0,47,0.00,,,0.00,TxWx,2013-01-31 10:15:00,
2013-01-31 04:16:00,51.0,30.0,30.22,WSW,247,3.0,3.0,47,0.00,,,0.00,TxWx,2013-01-31 10:16:00,
2013-01-31 04:20:00,50.0,30.0,30.22,West,270,4.0,5.0,48,0.00,,,0.00,TxWx,2013-01-31 10:20:00,
2013-01-31 04:21:00,49.0,29.0,30.23,WSW,247,3.0,3.0,49,0.00,,,0.00,TxWx,2013-01-31 10:21:00,
2013-01-31 04:26:00,48.0,29.0,30.22,WSW,247,3.0,5.0,50,0.00,,,0.00,TxWx,2013-01-31 10:26:00,
2013-01-31 04:27:00,48.0,29.0,30.22,WSW,247,4.0,4.0,50,0.00,,,0.00,TxWx,2013-01-31 10:27:00,
2013-01-31 04:28:00,48.0,29.0,30.22,West,270,4.0,4.0,50,0.00,,,0.00,TxWx,2013-01-31 10:28:00,
2013-01-31 04:32:00,48.0,30.0,30.22,SW,225,3.0,4.0,51,0.00,,,0.00,TxWx,2013-01-31 10:32:00,
2013-01-31 04:33:00,47.0,29.0,30.22,West,270,4.0,4.0,52,0.00,,,0.00,TxWx,2013-01-31 10:33:00,
2013-01-31 04:35:00,47.0,29.0,30.22,West,270,3.0,4.0,52,0.00,,,0.00,TxWx,2013-01-31 10:35:00,
2013-01-31 04:38:00,47.0,29.0,30.22,West,270,5.0,5.0,52,0.00,,,0.00,TxWx,2013-01-31 10:38:00,
2013-01-31 04:40:00,47.0,29.0,30.22,West,270,3.0,4.0,52,0.00,,,0.00,TxWx,2013-01-31 10:40:00,
2013-01-31 04:41:00,47.0,29.0,30.22,West,270,4.0,5.0,52,0.00,,,0.00,TxWx,2013-01-31 10:41:00,
2013-01-31 04:44:00,46.0,28.0,30.22,West,270,4.0,5.0,52,0.00,,,0.00,TxWx,2013-01-31 10:44:00,
2013-01-31 04:45:00,46.0,28.0,30.22,WNW,292,4.0,5.0,52,0.00,,,0.00,TxWx,2013-01-31 10:45:00,
2013-01-31 04:46:00,46.0,28.0,30.22,WNW,292,4.0,5.0,52,0.00,,,0.00,TxWx,2013-01-31 10:46:00,
2013-01-31 04:48:00,46.0,28.0,30.22,West,270,5.0,5.0,52,0.00,,,0.00,TxWx,2013-01-31 10:48:00,
2013-01-31 04:50:00,46.0,28.0,30.22,West,270,4.0,4.0,52,0.00,,,0.00,TxWx,2013-01-31 10:50:00,
2013-01-31 04:51:00,46.0,28.0,30.22,West,270,4.0,4.0,52,0.00,,,0.00,TxWx,2013-01-31 10:51:00,
2013-01-31 04:52:00,46.0,28.0,30.22,West,270,4.0,4.0,52,0.00,,,0.00,TxWx,2013-01-31 10:52:00,
2013-01-31 04:53:00,46.0,28.0,30.23,WNW,292,4.0,4.0,52,0.00,,,0.00,TxWx,2013-01-31 10:53:00,
2013-01-31 04:55:00,46.0,28.0,30.23,WNW,292,5.0,5.0,52,0.00,,,0.00,TxWx,2013-01-31 10:55:00,
2013-01-31 04:56:00,46.0,28.0,30.23,WNW,292,5.0,5.0,52,0.00,,,0.00,TxWx,2013-01-31 10:56:00,
2013-01-31 04:57:00,46.0,28.0,30.23,West,270,5.0,5.0,52,0.00,,,0.00,TxWx,2013-01-31 10:57:00,
2013-01-31 04:59:00,46.0,28.0,30.23,West,270,3.0,3.0,52,0.00,,,0.00,TxWx,2013-01-31 10:59:00,
2013-01-31 05:00:00,46.0,29.0,30.23,West,270,3.0,3.0,53,0.00,,,0.00,TxWx,2013-01-31 11:00:00,
2013-01-31 05:02:00,46.0,29.0,30.22,West,270,3.0,3.0,53,0.00,,,0.00,TxWx,2013-01-31 11:02:00,
2013-01-31 05:04:00,46.0,29.0,30.22,WNW,292,4.0,4.0,53,0.00,,,0.00,TxWx,2013-01-31 11:04:00,
2013-01-31 05:07:00,45.0,28.0,30.22,WNW,292,5.0,5.0,53,0.00,,,0.00,TxWx,2013-01-31 11:07:00,
2013-01-31 05:08:00,45.0,28.0,30.23,West,270,5.0,5.0,53,0.00,,,0.00,TxWx,2013-01-31 11:08:00,
2013-01-31 05:09:00,45.0,28.0,30.23,West,270,4.0,5.0,53,0.00,,,0.00,TxWx,2013-01-31 11:09:00,
2013-01-31 05:13:00,45.0,28.0,30.23,West,270,5.0,5.0,53,0.00,,,0.00,TxWx,2013-01-31 11:13:00,
2013-01-31 05:14:00,45.0,28.0,30.23,WSW,247,5.0,5.0,53,0.00,,,0.00,TxWx,2013-01-31 11:14:00,
2013-01-31 05:15:00,45.0,27.0,30.23,WNW,292,5.0,5.0,52,0.00,,,0.00,TxWx,2013-01-31 11:15:00,
2013-01-31 05:16:00,45.0,28.0,30.23,WSW,247,4.0,4.0,53,0.00,,,0.00,TxWx,2013-01-31 11:16:00,
2013-01-31 05:20:00,45.0,27.0,30.23,WSW,247,5.0,5.0,52,0.00,,,0.00,TxWx,2013-01-31 11:20:00,
2013-01-31 05:21:00,45.0,27.0,30.23,WNW,292,4.0,5.0,52,0.00,,,0.00,TxWx,2013-01-31 11:21:00,
2013-01-31 05:22:00,45.0,28.0,30.23,West,270,5.0,5.0,53,0.00,,,0.00,TxWx,2013-01-31 11:22:00,
2013-01-31 05:26:00,44.0,27.0,30.23,WNW,292,4.0,4.0,53,0.00,,,0.00,TxWx,2013-01-31 11:26:00,
2013-01-31 05:27:00,44.0,27.0,30.23,WNW,292,4.0,4.0,53,0.00,,,0.00,TxWx,2013-01-31 11:27:00,
2013-01-31 05:28:00,44.0,27.0,30.23,West,270,5.0,5.0,53,0.00,,,0.00,TxWx,2013-01-31 11:28:00,
2013-01-31 05:32:00,44.0,26.0,30.23,West,270,5.0,5.0,51,0.00,,,0.00,TxWx,2013-01-31 11:32:00,
2013-01-31 05:33:00,44.0,26.0,30.23,West,270,5.0,5.0,51,0.00,,,0.00,TxWx,2013-01-31 11:33:00,
2013-01-31 05:35:00,44.0,26.0,30.23,WSW,247,5.0,5.0,51,0.00,,,0.00,TxWx,2013-01-31 11:35:00,
2013-01-31 05:38:00,44.0,26.0,30.23,West,270,5.0,5.0,51,0.00,,,0.00,TxWx,2013-01-31 11:38:00,
2013-01-31 05:40:00,44.0,26.0,30.23,West,270,5.0,6.0,51,0.00,,,0.00,TxWx,2013-01-31 11:40:00,
2013-01-31 05:41:00,44.0,26.0,30.22,WSW,247,4.0,4.0,51,0.00,,,0.00,TxWx,2013-01-31 11:41:00,
2013-01-31 05:44:00,44.0,26.0,30.22,WSW,247,5.0,5.0,50,0.00,,,0.00,TxWx,2013-01-31 11:44:00,
2013-01-31 05:45:00,44.0,26.0,30.23,West,270,5.0,5.0,51,0.00,,,0.00,TxWx,2013-01-31 11:45:00,
2013-01-31 05:47:00,44.0,26.0,30.23,WSW,247,4.0,4.0,51,0.00,,,0.00,TxWx,2013-01-31 11:47:00,
2013-01-31 05:51:00,44.0,26.0,30.23,West,270,5.0,5.0,51,0.00,,,0.00,TxWx,2013-01-31 11:51:00,
2013-01-31 05:52:00,43.0,25.0,30.23,West,270,5.0,5.0,51,0.00,,,0.00,TxWx,2013-01-31 11:52:00,
2013-01-31 05:53:00,43.0,25.0,30.23,West,270,5.0,5.0,51,0.00,,,0.00,TxWx,2013-01-31 11:53:00,
2013-01-31 05:54:00,43.0,25.0,30.23,West,270,5.0,5.0,51,0.00,,,0.00,TxWx,2013-01-31 11:54:00,
2013-01-31 05:57:00,43.0,25.0,30.23,West,270,5.0,5.0,51,0.00,,,0.00,TxWx,2013-01-31 11:57:00,
2013-01-31 05:58:00,43.0,25.0,30.23,West,270,4.0,5.0,51,0.00,,,0.00,TxWx,2013-01-31 11:58:00,
2013-01-31 06:01:00,43.0,25.0,30.24,WSW,247,5.0,5.0,51,0.00,,,0.00,TxWx,2013-01-31 12:01:00,
2013-01-31 06:05:00,43.0,24.0,30.23,WNW,292,5.0,5.0,50,0.00,,,0.00,TxWx,2013-01-31 12:05:00,
2013-01-31 06:07:00,43.0,24.0,30.24,WNW,292,6.0,6.0,49,0.00,,,0.00,TxWx,2013-01-31 12:07:00,
2013-01-31 06:08:00,43.0,24.0,30.24,WNW,292,5.0,5.0,49,0.00,,,0.00,TxWx,2013-01-31 12:08:00,
2013-01-31 06:10:00,43.0,24.0,30.24,West,270,5.0,5.0,49,0.00,,,0.00,TxWx,2013-01-31 12:10:00,
2013-01-31 06:12:00,43.0,24.0,30.24,West,270,4.0,4.0,49,0.00,,,0.00,TxWx,2013-01-31 12:12:00,
2013-01-31 06:14:00,43.0,24.0,30.24,West,270,5.0,5.0,50,0.00,,,0.00,TxWx,2013-01-31 12:14:00,
2013-01-31 06:16:00,43.0,24.0,30.24,WNW,292,5.0,5.0,49,0.00,,,0.00,TxWx,2013-01-31 12:16:00,
2013-01-31 06:18:00,43.0,24.0,30.24,West,270,6.0,6.0,49,0.00,,,0.00,TxWx,2013-01-31 12:18:00,
2013-01-31 06:19:00,43.0,24.0,30.24,WNW,292,5.0,6.0,48,0.00,,,0.00,TxWx,2013-01-31 12:19:00,
2013-01-31 06:22:00,43.0,24.0,30.25,West,270,5.0,5.0,49,0.00,,,0.00,TxWx,2013-01-31 12:22:00,
2013-01-31 06:23:00,43.0,24.0,30.25,West,270,5.0,5.0,49,0.00,,,0.00,TxWx,2013-01-31 12:23:00,
2013-01-31 06:24:00,43.0,24.0,30.25,West,270,5.0,5.0,48,0.00,,,0.00,TxWx,2013-01-31 12:24:00,
2013-01-31 06:25:00,43.0,24.0,30.25,WNW,292,5.0,5.0,48,0.00,,,0.00,TxWx,2013-01-31 12:25:00,
2013-01-31 06:27:00,43.0,24.0,30.25,West,270,4.0,5.0,48,0.00,,,0.00,TxWx,2013-01-31 12:27:00,
2013-01-31 06:28:00,43.0,24.0,30.25,WNW,292,5.0,5.0,48,0.00,,,0.00,TxWx,2013-01-31 12:28:00,
2013-01-31 06:30:00,43.0,24.0,30.25,WNW,292,4.0,5.0,48,0.00,,,0.00,TxWx,2013-01-31 12:30:00,
2013-01-31 06:32:00,43.0,23.0,30.25,West,270,4.0,5.0,48,0.00,,,0.00,TxWx,2013-01-31 12:32:00,
2013-01-31 06:33:00,43.0,23.0,30.25,West,270,4.0,4.0,48,0.00,,,0.00,TxWx,2013-01-31 12:33:00,
2013-01-31 06:35:00,43.0,23.0,30.25,WNW,292,5.0,5.0,48,0.00,,,0.00,TxWx,2013-01-31 12:35:00,
2013-01-31 06:38:00,43.0,23.0,30.25,WNW,292,5.0,5.0,47,0.00,,,0.00,TxWx,2013-01-31 12:38:00,
2013-01-31 06:40:00,43.0,23.0,30.25,West,270,5.0,5.0,47,0.00,,,0.00,TxWx,2013-01-31 12:40:00,
2013-01-31 06:41:00,43.0,23.0,30.25,West,270,5.0,5.0,47,0.00,,,0.00,TxWx,2013-01-31 12:41:00,
2013-01-31 06:43:00,43.0,23.0,30.25,WNW,292,5.0,5.0,47,0.00,,,0.00,TxWx,2013-01-31 12:43:00,
2013-01-31 06:44:00,43.0,23.0,30.25,WNW,292,5.0,5.0,47,0.00,,,0.00,TxWx,2013-01-31 12:44:00,
2013-01-31 06:46:00,43.0,23.0,30.24,West,270,4.0,4.0,47,0.00,,,0.00,TxWx,2013-01-31 12:46:00,
2013-01-31 06:48:00,43.0,23.0,30.24,WNW,292,5.0,5.0,47,0.00,,,0.00,TxWx,2013-01-31 12:48:00,
2013-01-31 06:50:00,43.0,23.0,30.24,West,270,5.0,5.0,47,0.00,,,0.00,TxWx,2013-01-31 12:50:00,
2013-01-31 06:51:00,43.0,23.0,30.24,West,270,4.0,4.0,47,0.00,,,0.00,TxWx,2013-01-31 12:51:00,
2013-01-31 06:52:00,43.0,23.0,30.24,West,270,5.0,5.0,47,0.00,,,0.00,TxWx,2013-01-31 12:52:00,
2013-01-31 06:54:00,43.0,23.0,30.25,West,270,5.0,5.0,48,0.00,,,0.00,TxWx,2013-01-31 12:54:00,
2013-01-31 06:56:00,43.0,23.0,30.25,West,270,5.0,5.0,48,0.00,,,0.00,TxWx,2013-01-31 12:56:00,
2013-01-31 06:57:00,43.0,23.0,30.25,West,270,5.0,5.0,48,0.00,,,0.00,TxWx,2013-01-31 12:57:00,
2013-01-31 06:58:00,43.0,23.0,30.25,WNW,292,5.0,5.0,47,0.00,,,0.00,TxWx,2013-01-31 12:58:00,
2013-01-31 07:01:00,43.0,23.0,30.25,WNW,292,4.0,5.0,48,0.00,,,0.00,TxWx,2013-01-31 13:01:00,
2013-01-31 07:02:00,43.0,23.0,30.26,West,270,3.0,3.0,48,0.00,,,0.00,TxWx,2013-01-31 13:02:00,
2013-01-31 07:04:00,43.0,24.0,30.25,West,270,5.0,5.0,48,0.00,,,0.00,TxWx,2013-01-31 13:04:00,
2013-01-31 07:06:00,43.0,24.0,30.26,West,270,5.0,5.0,49,0.00,,,0.00,TxWx,2013-01-31 13:06:00,
2013-01-31 07:08:00,43.0,24.0,30.26,West,270,5.0,5.0,49,0.00,,,0.00,TxWx,2013-01-31 13:08:00,
2013-01-31 07:10:00,43.0,24.0,30.26,West,270,5.0,5.0,49,0.00,,,0.00,TxWx,2013-01-31 13:10:00,
2013-01-31 07:12:00,43.0,24.0,30.26,WNW,292,5.0,5.0,49,0.00,,,0.00,TxWx,2013-01-31 13:12:00,
2013-01-31 07:14:00,43.0,24.0,30.26,WNW,292,5.0,5.0,49,0.00,,,0.00,TxWx,2013-01-31 13:14:00,
2013-01-31 07:15:00,43.0,24.0,30.27,WNW,292,4.0,5.0,49,0.00,,,0.00,TxWx,2013-01-31 13:15:00,
2013-01-31 07:18:00,43.0,24.0,30.27,West,270,5.0,5.0,49,0.00,,,0.00,TxWx,2013-01-31 13:18:00,
2013-01-31 07:19:00,43.0,24.0,30.27,WNW,292,5.0,5.0,48,0.00,,,0.00,TxWx,2013-01-31 13:19:00,
2013-01-31 07:21:00,43.0,24.0,30.27,WNW,292,5.0,5.0,49,0.00,,,0.00,TxWx,2013-01-31 13:21:00,
2013-01-31 07:24:00,43.0,24.0,30.27,West,270,4.0,4.0,48,0.00,,,0.00,TxWx,2013-01-31 13:24:00,
2013-01-31 07:25:00,43.0,24.0,30.27,West,270,5.0,5.0,48,0.00,,,0.00,TxWx,2013-01-31 13:25:00,
2013-01-31 07:27:00,43.0,23.0,30.26,West,270,5.0,5.0,48,0.00,,,0.00,TxWx,2013-01-31 13:27:00,
2013-01-31 07:30:00,43.0,23.0,30.26,WNW,292,4.0,4.0,47,0.00,,,0.00,TxWx,2013-01-31 13:30:00,
2013-01-31 07:33:00,43.0,23.0,30.26,WNW,292,5.0,5.0,47,0.00,,,0.00,TxWx,2013-01-31 13:33:00,
2013-01-31 07:35:00,44.0,24.0,30.26,WNW,292,5.0,5.0,47,0.00,,,0.00,TxWx,2013-01-31 13:35:00,
2013-01-31 07:37:00,44.0,24.0,30.26,WNW,292,4.0,4.0,47,0.00,,,0.00,TxWx,2013-01-31 13:37:00,
2013-01-31 07:39:00,44.0,24.0,30.26,WNW,292,5.0,5.0,47,0.00,,,0.00,TxWx,2013-01-31 13:39:00,
2013-01-31 07:42:00,44.0,24.0,30.26,WNW,292,5.0,5.0,47,0.00,,,0.00,TxWx,2013-01-31 13:42:00,
2013-01-31 07:43:00,44.0,24.0,30.26,West,270,5.0,5.0,46,0.00,,,0.00,TxWx,2013-01-31 13:43:00,
2013-01-31 07:48:00,44.0,24.0,30.26,WNW,292,4.0,4.0,46,0.00,,,0.00,TxWx,2013-01-31 13:48:00,
2013-01-31 07:49:00,44.0,24.0,30.26,WNW,292,4.0,4.0,47,0.00,,,0.00,TxWx,2013-01-31 13:49:00,
2013-01-31 07:50:00,44.0,24.0,30.26,WNW,292,5.0,5.0,47,0.00,,,0.00,TxWx,2013-01-31 13:50:00,
2013-01-31 07:52:00,44.0,23.0,30.27,West,270,5.0,5.0,46,0.00,,,0.00,TxWx,2013-01-31 13:52:00,
2013-01-31 07:54:00,44.0,23.0,30.27,WNW,292,3.0,4.0,46,0.00,,,0.00,TxWx,2013-01-31 13:54:00,
2013-01-31 07:56:00,45.0,24.0,30.27,West,270,4.0,4.0,46,0.00,,,0.00,TxWx,2013-01-31 13:56:00,
2013-01-31 07:59:00,45.0,24.0,30.27,WNW,292,4.0,4.0,46,0.00,,,0.00,TxWx,2013-01-31 13:59:00,
2013-01-31 08:00:00,45.0,24.0,30.27,WSW,247,5.0,5.0,46,0.00,,,0.00,TxWx,2013-01-31 14:00:00,
2013-01-31 08:03:00,45.0,24.0,30.27,West,270,5.0,5.0,46,0.00,,,0.00,TxWx,2013-01-31 14:03:00,
2013-01-31 08:05:00,45.0,24.0,30.27,West,270,3.0,3.0,46,0.00,,,0.00,TxWx,2013-01-31 14:05:00,
2013-01-31 08:06:00,45.0,24.0,30.27,WNW,292,4.0,4.0,45,0.00,,,0.00,TxWx,2013-01-31 14:06:00,
2013-01-31 08:09:00,45.0,24.0,30.27,WNW,292,5.0,5.0,45,0.00,,,0.00,TxWx,2013-01-31 14:09:00,
2013-01-31 08:12:00,46.0,25.0,30.27,WNW,292,5.0,5.0,45,0.00,,,0.00,TxWx,2013-01-31 14:12:00,
2013-01-31 08:14:00,46.0,25.0,30.27,WSW,247,3.0,4.0,45,0.00,,,0.00,TxWx,2013-01-31 14:14:00,
2013-01-31 08:15:00,46.0,25.0,30.27,WNW,292,4.0,5.0,46,0.00,,,0.00,TxWx,2013-01-31 14:15:00,
2013-01-31 08:18:00,46.0,25.0,30.28,WNW,292,5.0,5.0,45,0.00,,,0.00,TxWx,2013-01-31 14:18:00,
2013-01-31 08:20:00,46.0,25.0,30.28,WNW,292,6.0,6.0,45,0.00,,,0.00,TxWx,2013-01-31 14:20:00,
2013-01-31 08:21:00,46.0,25.0,30.28,WNW,292,5.0,5.0,45,0.00,,,0.00,TxWx,2013-01-31 14:21:00,
2013-01-31 08:23:00,46.0,25.0,30.28,West,270,5.0,5.0,45,0.00,,,0.00,TxWx,2013-01-31 14:23:00,
2013-01-31 08:24:00,46.0,25.0,30.28,West,270,4.0,4.0,45,0.00,,,0.00,TxWx,2013-01-31 14:24:00,
2013-01-31 08:25:00,46.0,25.0,30.28,West,270,3.0,3.0,46,0.00,,,0.00,TxWx,2013-01-31 14:25:00,
2013-01-31 08:29:00,46.0,25.0,30.29,West,270,4.0,5.0,45,0.00,,,0.00,TxWx,2013-01-31 14:29:00,
2013-01-31 08:30:00,46.0,25.0,30.29,West,270,5.0,5.0,45,0.00,,,0.00,TxWx,2013-01-31 14:30:00,
2013-01-31 08:31:00,47.0,26.0,30.29,WNW,292,5.0,5.0,45,0.00,,,0.00,TxWx,2013-01-31 14:31:00,
2013-01-31 08:34:00,47.0,26.0,30.29,West,270,5.0,5.0,45,0.00,,,0.00,TxWx,2013-01-31 14:34:00,
2013-01-31 08:35:00,47.0,26.0,30.28,WNW,292,5.0,5.0,45,0.00,,,0.00,TxWx,2013-01-31 14:35:00,
2013-01-31 08:36:00,47.0,26.0,30.29,West,270,4.0,4.0,46,0.00,,,0.00,TxWx,2013-01-31 14:36:00,
2013-01-31 08:39:00,47.0,26.0,30.28,West,270,4.0,4.0,46,0.00,,,0.00,TxWx,2013-01-31 14:39:00,
2013-01-31 08:41:00,47.0,26.0,30.28,West,270,3.0,4.0,45,0.00,,,0.00,TxWx,2013-01-31 14:41:00,
2013-01-31 08:42:00,47.0,26.0,30.28,West,270,4.0,4.0,45,0.00,,,0.00,TxWx,2013-01-31 14:42:00,
2013-01-31 08:45:00,48.0,27.0,30.28,WNW,292,3.0,4.0,46,0.00,,,0.00,TxWx,2013-01-31 14:45:00,
2013-01-31 08:47:00,48.0,27.0,30.28,West,270,4.0,4.0,46,0.00,,,0.00,TxWx,2013-01-31 14:47:00,
2013-01-31 08:48:00,48.0,27.0,30.29,West,270,5.0,5.0,46,0.00,,,0.00,TxWx,2013-01-31 14:48:00,
2013-01-31 08:50:00,48.0,27.0,30.29,West,270,6.0,6.0,46,0.00,,,0.00,TxWx,2013-01-31 14:50:00,
2013-01-31 08:52:00,49.0,28.0,30.29,West,270,4.0,4.0,47,0.00,,,0.00,TxWx,2013-01-31 14:52:00,
2013-01-31 08:53:00,49.0,28.0,30.29,WNW,292,5.0,5.0,47,0.00,,,0.00,TxWx,2013-01-31 14:53:00,
2013-01-31 08:57:00,49.0,28.0,30.28,WSW,247,4.0,4.0,46,0.00,,,0.00,TxWx,2013-01-31 14:57:00,
2013-01-31 08:59:00,50.0,29.0,30.29,West,270,5.0,5.0,47,0.00,,,0.00,TxWx,2013-01-31 14:59:00,
2013-01-31 09:00:00,50.0,29.0,30.29,WSW,247,5.0,5.0,47,0.00,,,0.00,TxWx,2013-01-31 15:00:00,
2013-01-31 09:01:00,50.0,29.0,30.29,West,270,3.0,3.0,47,0.00,,,0.00,TxWx,2013-01-31 15:01:00,
2013-01-31 09:02:00,51.0,30.0,30.29,West,270,5.0,5.0,47,0.00,,,0.00,TxWx,2013-01-31 15:02:00,
2013-01-31 09:06:00,51.0,30.0,30.29,WSW,247,4.0,4.0,47,0.00,,,0.00,TxWx,2013-01-31 15:06:00,
2013-01-31 09:07:00,51.0,30.0,30.29,WNW,292,3.0,3.0,47,0.00,,,0.00,TxWx,2013-01-31 15:07:00,
2013-01-31 09:08:00,51.0,30.0,30.29,WSW,247,6.0,6.0,46,0.00,,,0.00,TxWx,2013-01-31 15:08:00,
2013-01-31 09:10:00,51.0,30.0,30.29,WSW,247,5.0,5.0,46,0.00,,,0.00,TxWx,2013-01-31 15:10:00,
2013-01-31 09:13:00,52.0,31.0,30.29,West,270,5.0,5.0,46,0.00,,,0.00,TxWx,2013-01-31 15:13:00,
2013-01-31 09:15:00,52.0,31.0,30.30,West,270,3.0,4.0,46,0.00,,,0.00,TxWx,2013-01-31 15:15:00,
2013-01-31 09:19:00,52.0,31.0,30.30,West,270,3.0,3.0,46,0.00,,,0.00,TxWx,2013-01-31 15:19:00,
2013-01-31 09:21:00,53.0,33.0,30.30,West,270,3.0,3.0,46,0.00,,,0.00,TxWx,2013-01-31 15:21:00,
2013-01-31 09:22:00,53.0,33.0,30.30,WSW,247,3.0,3.0,46,0.00,,,0.00,TxWx,2013-01-31 15:22:00,
2013-01-31 09:25:00,53.0,32.0,30.30,WSW,247,4.0,5.0,45,0.00,,,0.00,TxWx,2013-01-31 15:25:00,
2013-01-31 09:26:00,53.0,31.0,30.30,West,270,5.0,5.0,45,0.00,,,0.00,TxWx,2013-01-31 15:26:00,
2013-01-31 09:28:00,53.0,31.0,30.30,WSW,247,5.0,6.0,45,0.00,,,0.00,TxWx,2013-01-31 15:28:00,
2013-01-31 09:30:00,54.0,33.0,30.30,West,270,4.0,5.0,45,0.00,,,0.00,TxWx,2013-01-31 15:30:00,
2013-01-31 09:32:00,54.0,33.0,30.30,West,270,5.0,5.0,45,0.00,,,0.00,TxWx,2013-01-31 15:32:00,
2013-01-31 09:33:00,54.0,33.0,30.30,West,270,5.0,5.0,45,0.00,,,0.00,TxWx,2013-01-31 15:33:00,
2013-01-31 09:36:00,54.0,33.0,30.30,WSW,247,3.0,4.0,45,0.00,,,0.00,TxWx,2013-01-31 15:36:00,
2013-01-31 09:38:00,54.0,33.0,30.30,West,270,3.0,3.0,45,0.00,,,0.00,TxWx,2013-01-31 15:38:00,
2013-01-31 09:39:00,54.0,33.0,30.30,WSW,247,3.0,3.0,45,0.00,,,0.00,TxWx,2013-01-31 15:39:00,
2013-01-31 09:40:00,55.0,34.0,30.30,West,270,3.0,3.0,45,0.00,,,0.00,TxWx,2013-01-31 15:40:00,
2013-01-31 09:44:00,55.0,33.0,30.30,West,270,5.0,5.0,44,0.00,,,0.00,TxWx,2013-01-31 15:44:00,
2013-01-31 09:45:00,55.0,33.0,30.30,WSW,247,6.0,6.0,44,0.00,,,0.00,TxWx,2013-01-31 15:45:00,
2013-01-31 09:50:00,56.0,34.0,30.30,WSW,247,5.0,6.0,43,0.00,,,0.00,TxWx,2013-01-31 15:50:00,
2013-01-31 09:51:00,56.0,33.0,30.30,SW,225,5.0,5.0,43,0.00,,,0.00,TxWx,2013-01-31 15:51:00,
2013-01-31 09:52:00,56.0,34.0,30.30,WSW,247,6.0,6.0,43,0.00,,,0.00,TxWx,2013-01-31 15:52:00,
2013-01-31 09:56:00,57.0,34.0,30.30,WSW,247,6.0,6.0,42,0.00,,,0.00,TxWx,2013-01-31 15:56:00,
2013-01-31 09:57:00,57.0,34.0,30.30,WSW,247,4.0,4.0,42,0.00,,,0.00,TxWx,2013-01-31 15:57:00,
2013-01-31 09:58:00,57.0,34.0,30.30,West,270,3.0,3.0,42,0.00,,,0.00,TxWx,2013-01-31 15:58:00,
2013-01-31 10:01:00,58.0,35.0,30.30,South,180,5.0,5.0,42,0.00,,,0.00,TxWx,2013-01-31 16:01:00,
2013-01-31 10:02:00,59.0,35.0,30.30,West,270,5.0,5.0,41,0.00,,,0.00,TxWx,2013-01-31 16:02:00,
2013-01-31 10:03:00,59.0,35.0,30.30,SW,225,8.0,8.0,41,0.00,,,0.00,TxWx,2013-01-31 16:03:00,
2013-01-31 10:06:00,59.0,34.0,30.30,SW,225,5.0,6.0,39,0.00,,,0.00,TxWx,2013-01-31 16:06:00,
2013-01-31 10:08:00,59.0,34.0,30.30,SW,225,3.0,3.0,39,0.00,,,0.00,TxWx,2013-01-31 16:08:00,
2013-01-31 10:09:00,59.0,34.0,30.30,SW,225,6.0,6.0,39,0.00,,,0.00,TxWx,2013-01-31 16:09:00,
2013-01-31 10:12:00,60.0,35.0,30.30,SSW,202,6.0,6.0,39,0.00,,,0.00,TxWx,2013-01-31 16:12:00,
2013-01-31 10:13:00,60.0,35.0,30.30,South,180,3.0,3.0,39,0.00,,,0.00,TxWx,2013-01-31 16:13:00,
2013-01-31 10:14:00,60.0,35.0,30.30,SSW,202,5.0,6.0,39,0.00,,,0.00,TxWx,2013-01-31 16:14:00,
2013-01-31 10:16:00,60.0,35.0,30.30,SW,225,10.0,10.0,39,0.00,,,0.00,TxWx,2013-01-31 16:16:00,
2013-01-31 10:17:00,60.0,34.0,30.30,WSW,247,8.0,8.0,38,0.00,,,0.00,TxWx,2013-01-31 16:17:00,
2013-01-31 10:20:00,60.0,34.0,30.31,WSW,247,5.0,6.0,38,0.00,,,0.00,TxWx,2013-01-31 16:20:00,
2013-01-31 10:21:00,60.0,34.0,30.31,SW,225,7.0,7.0,38,0.00,,,0.00,TxWx,2013-01-31 16:21:00,
2013-01-31 10:22:00,61.0,35.0,30.31,WSW,247,7.0,7.0,39,0.00,,,0.00,TxWx,2013-01-31 16:22:00,
2013-01-31 10:23:00,61.0,35.0,30.31,SW,225,6.0,6.0,38,0.00,,,0.00,TxWx,2013-01-31 16:23:00,
2013-01-31 10:25:00,61.0,35.0,30.31,SW,225,9.0,9.0,38,0.00,,,0.00,TxWx,2013-01-31 16:25:00,
2013-01-31 10:26:00,61.0,35.0,30.31,SSW,202,6.0,7.0,38,0.00,,,0.00,TxWx,2013-01-31 16:26:00,
2013-01-31 10:28:00,61.0,35.0,30.31,SSW,202,9.0,9.0,38,0.00,,,0.00,TxWx,2013-01-31 16:28:00,
2013-01-31 10:29:00,61.0,35.0,30.31,SSW,202,8.0,8.0,38,0.00,,,0.00,TxWx,2013-01-31 16:29:00,
2013-01-31 10:31:00,61.0,34.0,30.30,SW,225,10.0,10.0,37,0.00,,,0.00,TxWx,2013-01-31 16:31:00,
2013-01-31 10:33:00,61.0,34.0,30.30,SW,225,6.0,6.0,37,0.00,,,0.00,TxWx,2013-01-31 16:33:00,
2013-01-31 10:35:00,61.0,35.0,30.30,WSW,247,5.0,5.0,38,0.00,,,0.00,TxWx,2013-01-31 16:35:00,
2013-01-31 10:37:00,61.0,34.0,30.30,SW,225,4.0,4.0,37,0.00,,,0.00,TxWx,2013-01-31 16:37:00,
2013-01-31 10:39:00,61.0,34.0,30.30,SSE,157,6.0,6.0,37,0.00,,,0.00,TxWx,2013-01-31 16:39:00,
2013-01-31 10:40:00,62.0,35.0,30.30,SSW,202,7.0,7.0,36,0.00,,,0.00,TxWx,2013-01-31 16:40:00,
2013-01-31 10:42:00,62.0,35.0,30.30,SSW,202,6.0,6.0,36,0.00,,,0.00,TxWx,2013-01-31 16:42:00,
2013-01-31 10:43:00,62.0,34.0,30.30,SSW,202,7.0,8.0,36,0.00,,,0.00,TxWx,2013-01-31 16:43:00,
2013-01-31 10:44:00,62.0,34.0,30.30,SW,225,8.0,8.0,36,0.00,,,0.00,TxWx,2013-01-31 16:44:00,
2013-01-31 10:46:00,62.0,34.0,30.30,SW,225,6.0,6.0,36,0.00,,,0.00,TxWx,2013-01-31 16:46:00,
2013-01-31 10:48:00,62.0,34.0,30.30,SE,135,10.0,10.0,35,0.00,,,0.00,TxWx,2013-01-31 16:48:00,
2013-01-31 10:49:00,62.0,34.0,30.30,South,180,8.0,9.0,35,0.00,,,0.00,TxWx,2013-01-31 16:49:00,
2013-01-31 10:52:00,62.0,33.0,30.31,South,180,10.0,10.0,33,0.00,,,0.00,TxWx,2013-01-31 16:52:00,
2013-01-31 10:54:00,62.0,33.0,30.31,SW,225,5.0,5.0,33,0.00,,,0.00,TxWx,2013-01-31 16:54:00,
2013-01-31 10:55:00,62.0,33.0,30.31,SSW,202,6.0,6.0,33,0.00,,,0.00,TxWx,2013-01-31 16:55:00,
2013-01-31 10:58:00,62.0,29.0,30.31,SW,225,8.0,10.0,30,0.00,,,0.00,TxWx,2013-01-31 16:58:00,
2013-01-31 11:00:00,62.0,30.0,30.31,South,180,7.0,7.0,31,0.00,,,0.00,TxWx,2013-01-31 17:00:00,
2013-01-31 11:01:00,62.0,30.0,30.31,WSW,247,5.0,5.0,31,0.00,,,0.00,TxWx,2013-01-31 17:01:00,
2013-01-31 11:02:00,62.0,30.0,30.31,SSE,157,1.0,2.0,32,0.00,,,0.00,TxWx,2013-01-31 17:02:00,
2013-01-31 11:04:00,63.0,32.0,30.31,South,180,8.0,8.0,32,0.00,,,0.00,TxWx,2013-01-31 17:04:00,
2013-01-31 11:06:00,63.0,30.0,30.31,SSE,157,8.0,8.0,31,0.00,,,0.00,TxWx,2013-01-31 17:06:00,
2013-01-31 11:07:00,63.0,30.0,30.31,SSW,202,4.0,4.0,31,0.00,,,0.00,TxWx,2013-01-31 17:07:00,
2013-01-31 11:08:00,63.0,30.0,30.31,SW,225,5.0,5.0,30,0.00,,,0.00,TxWx,2013-01-31 17:08:00,
2013-01-31 11:10:00,63.0,29.0,30.31,WSW,247,6.0,6.0,29,0.00,,,0.00,TxWx,2013-01-31 17:10:00,
2013-01-31 11:12:00,63.0,28.0,30.31,South,180,5.0,5.0,28,0.00,,,0.00,TxWx,2013-01-31 17:12:00,
2013-01-31 11:15:00,63.0,28.0,30.31,SW,225,5.0,5.0,28,0.00,,,0.00,TxWx,2013-01-31 17:15:00,
2013-01-31 11:17:00,63.0,27.0,30.31,WSW,247,6.0,7.0,27,0.00,,,0.00,TxWx,2013-01-31 17:17:00,
2013-01-31 11:19:00,63.0,26.0,30.31,WSW,247,5.0,5.0,26,0.00,,,0.00,TxWx,2013-01-31 17:19:00,
2013-01-31 11:20:00,63.0,26.0,30.31,SSW,202,5.0,5.0,25,0.00,,,0.00,TxWx,2013-01-31 17:20:00,
2013-01-31 11:22:00,63.0,25.0,30.31,SW,225,8.0,9.0,25,0.00,,,0.00,TxWx,2013-01-31 17:22:00,
2013-01-31 11:23:00,63.0,25.0,30.31,WSW,247,6.0,6.0,25,0.00,,,0.00,TxWx,2013-01-31 17:23:00,
2013-01-31 11:26:00,64.0,25.0,30.31,SW,225,7.0,7.0,24,0.00,,,0.00,TxWx,2013-01-31 17:26:00,
2013-01-31 11:27:00,64.0,26.0,30.31,SW,225,6.0,6.0,25,0.00,,,0.00,TxWx,2013-01-31 17:27:00,
2013-01-31 11:28:00,64.0,27.0,30.31,West,270,5.0,5.0,26,0.00,,,0.00,TxWx,2013-01-31 17:28:00,
2013-01-31 11:29:00,64.0,27.0,30.31,West,270,6.0,6.0,26,0.00,,,0.00,TxWx,2013-01-31 17:29:00,
2013-01-31 11:31:00,64.0,27.0,30.31,West,270,7.0,8.0,26,0.00,,,0.00,TxWx,2013-01-31 17:31:00,
2013-01-31 11:33:00,64.0,27.0,30.30,SW,225,6.0,6.0,26,0.00,,,0.00,TxWx,2013-01-31 17:33:00,
2013-01-31 11:34:00,65.0,28.0,30.30,West,270,3.0,3.0,26,0.00,,,0.00,TxWx,2013-01-31 17:34:00,
2013-01-31 11:35:00,65.0,28.0,30.31,SSW,202,6.0,6.0,26,0.00,,,0.00,TxWx,2013-01-31 17:35:00,
2013-01-31 11:36:00,65.0,27.0,30.30,South,180,6.0,8.0,25,0.00,,,0.00,TxWx,2013-01-31 17:36:00,
2013-01-31 11:40:00,65.0,26.0,30.30,SW,225,7.0,8.0,24,0.00,,,0.00,TxWx,2013-01-31 17:40:00,
2013-01-31 11:41:00,65.0,27.0,30.30,SW,225,10.0,10.0,25,0.00,,,0.00,TxWx,2013-01-31 17:41:00,
2013-01-31 11:44:00,64.0,25.0,30.30,SSW,202,7.0,7.0,24,0.00,,,0.00,TxWx,2013-01-31 17:44:00,
2013-01-31 11:45:00,64.0,25.0,30.30,WSW,247,10.0,10.0,24,0.00,,,0.00,TxWx,2013-01-31 17:45:00,
2013-01-31 11:47:00,64.0,25.0,30.30,WSW,247,5.0,5.0,24,0.00,,,0.00,TxWx,2013-01-31 17:47:00,
2013-01-31 11:48:00,65.0,27.0,30.29,WSW,247,5.0,5.0,25,0.00,,,0.00,TxWx,2013-01-31 17:48:00,
2013-01-31 11:50:00,65.0,26.0,30.29,SW,225,8.0,9.0,24,0.00,,,0.00,TxWx,2013-01-31 17:50:00,
2013-01-31 11:51:00,64.0,24.0,30.29,SW,225,7.0,7.0,23,0.00,,,0.00,TxWx,2013-01-31 17:51:00,
2013-01-31 11:52:00,64.0,24.0,30.29,SW,225,7.0,7.0,23,0.00,,,0.00,TxWx,2013-01-31 17:52:00,
2013-01-31 11:53:00,64.0,24.0,30.29,SW,225,5.0,5.0,23,0.00,,,0.00,TxWx,2013-01-31 17:53:00,
2013-01-31 11:56:00,65.0,26.0,30.29,SW,225,3.0,3.0,24,0.00,,,0.00,TxWx,2013-01-31 17:56:00,
2013-01-31 11:57:00,65.0,26.0,30.29,West,270,5.0,5.0,24,0.00,,,0.00,TxWx,2013-01-31 17:57:00,
2013-01-31 11:58:00,65.0,25.0,30.28,WSW,247,6.0,6.0,23,0.00,,,0.00,TxWx,2013-01-31 17:58:00,
2013-01-31 12:00:00,65.0,24.0,30.29,West,270,3.0,4.0,22,0.00,,,0.00,TxWx,2013-01-31 18:00:00,
2013-01-31 12:03:00,65.0,25.0,30.29,South,180,5.0,5.0,23,0.00,,,0.00,TxWx,2013-01-31 18:03:00,
2013-01-31 12:04:00,65.0,25.0,30.29,SSW,202,5.0,6.0,23,0.00,,,0.00,TxWx,2013-01-31 18:04:00,
2013-01-31 12:07:00,65.0,25.0,30.29,SE,135,5.0,5.0,23,0.00,,,0.00,TxWx,2013-01-31 18:07:00,
2013-01-31 12:08:00,65.0,25.0,30.29,SSW,202,3.0,4.0,23,0.00,,,0.00,TxWx,2013-01-31 18:08:00,
2013-01-31 12:09:00,65.0,25.0,30.29,SSE,157,3.0,4.0,23,0.00,,,0.00,TxWx,2013-01-31 18:09:00,
2013-01-31 12:12:00,66.0,26.0,30.29,West,270,6.0,6.0,23,0.00,,,0.00,TxWx,2013-01-31 18:12:00,
2013-01-31 12:14:00,66.0,27.0,30.29,WSW,247,1.0,1.0,24,0.00,,,0.00,TxWx,2013-01-31 18:14:00,
2013-01-31 12:15:00,66.0,27.0,30.29,SE,135,4.0,4.0,24,0.00,,,0.00,TxWx,2013-01-31 18:15:00,
2013-01-31 12:18:00,65.0,28.0,30.28,ESE,112,9.0,10.0,26,0.00,,,0.00,TxWx,2013-01-31 18:18:00,
2013-01-31 12:19:00,66.0,28.0,30.29,ESE,112,3.0,3.0,25,0.00,,,0.00,TxWx,2013-01-31 18:19:00,
2013-01-31 12:20:00,66.0,28.0,30.28,WNW,292,2.0,2.0,25,0.00,,,0.00,TxWx,2013-01-31 18:20:00,
2013-01-31 12:21:00,66.0,26.0,30.28,SSW,202,1.0,1.0,23,0.00,,,0.00,TxWx,2013-01-31 18:21:00,
2013-01-31 12:25:00,65.0,26.0,30.28,NE,45,1.0,2.0,24,0.00,,,0.00,TxWx,2013-01-31 18:25:00,
2013-01-31 12:26:00,65.0,27.0,30.28,East,90,1.0,2.0,25,0.00,,,0.00,TxWx,2013-01-31 18:26:00,
2013-01-31 12:28:00,65.0,27.0,30.28,NNE,22,3.0,3.0,25,0.00,,,0.00,TxWx,2013-01-31 18:28:00,
2013-01-31 12:31:00,66.0,28.0,30.28,SE,135,1.0,1.0,25,0.00,,,0.00,TxWx,2013-01-31 18:31:00,
2013-01-31 12:32:00,66.0,28.0,30.28,South,180,2.0,3.0,25,0.00,,,0.00,TxWx,2013-01-31 18:32:00,
2013-01-31 12:34:00,65.0,25.0,30.28,East,90,6.0,8.0,23,0.00,,,0.00,TxWx,2013-01-31 18:34:00,
2013-01-31 12:36:00,65.0,26.0,30.28,East,90,6.0,6.0,24,0.00,,,0.00,TxWx,2013-01-31 18:36:00,
2013-01-31 12:39:00,65.0,26.0,30.28,ESE,112,8.0,10.0,24,0.00,,,0.00,TxWx,2013-01-31 18:39:00,
2013-01-31 12:41:00,65.0,27.0,30.27,SSE,157,6.0,6.0,25,0.00,,,0.00,TxWx,2013-01-31 18:41:00,
2013-01-31 12:42:00,65.0,26.0,30.27,South,180,3.0,4.0,24,0.00,,,0.00,TxWx,2013-01-31 18:42:00,
2013-01-31 12:43:00,66.0,27.0,30.27,ESE,112,8.0,8.0,24,0.00,,,0.00,TxWx,2013-01-31 18:43:00,
2013-01-31 12:44:00,65.0,26.0,30.27,SE,135,6.0,6.0,24,0.00,,,0.00,TxWx,2013-01-31 18:44:00,
2013-01-31 12:48:00,65.0,26.0,30.27,ESE,112,8.0,8.0,24,0.00,,,0.00,TxWx,2013-01-31 18:48:00,
2013-01-31 12:49:00,65.0,24.0,30.27,SE,135,7.0,8.0,22,0.00,,,0.00,TxWx,2013-01-31 18:49:00,
2013-01-31 12:50:00,64.0,24.0,30.27,SE,135,10.0,11.0,23,0.00,,,0.00,TxWx,2013-01-31 18:50:00,
2013-01-31 12:54:00,64.0,29.0,30.26,SE,135,10.0,10.0,28,0.00,,,0.00,TxWx,2013-01-31 18:54:00,
2013-01-31 12:55:00,64.0,27.0,30.26,SE,135,14.0,14.0,26,0.00,,,0.00,TxWx,2013-01-31 18:55:00,
2013-01-31 12:57:00,65.0,26.0,30.27,SSE,157,9.0,9.0,24,0.00,,,0.00,TxWx,2013-01-31 18:57:00,
2013-01-31 12:59:00,65.0,25.0,30.27,SSE,157,7.0,7.0,23,0.00,,,0.00,TxWx,2013-01-31 18:59:00,
2013-01-31 13:00:00,65.0,25.0,30.26,SSW,202,10.0,10.0,23,0.00,,,0.00,TxWx,2013-01-31 19:00:00,
2013-01-31 13:01:00,65.0,25.0,30.26,SSW,202,10.0,10.0,23,0.00,,,0.00,TxWx,2013-01-31 19:01:00,
2013-01-31 13:03:00,66.0,26.0,30.26,SE,135,6.0,6.0,23,0.00,,,0.00,TxWx,2013-01-31 19:03:00,
2013-01-31 13:05:00,65.0,30.0,30.26,SE,135,7.0,9.0,28,0.00,,,0.00,TxWx,2013-01-31 19:05:00,
2013-01-31 13:07:00,64.0,28.0,30.26,SE,135,9.0,10.0,27,0.00,,,0.00,TxWx,2013-01-31 19:07:00,
2013-01-31 13:08:00,64.0,29.0,30.26,SE,135,8.0,8.0,28,0.00,,,0.00,TxWx,2013-01-31 19:08:00,
2013-01-31 13:10:00,65.0,28.0,30.25,SSE,157,7.0,7.0,26,0.00,,,0.00,TxWx,2013-01-31 19:10:00,
2013-01-31 13:13:00,64.0,29.0,30.25,SE,135,8.0,8.0,28,0.00,,,0.00,TxWx,2013-01-31 19:13:00,
2013-01-31 13:15:00,64.0,31.0,30.25,South,180,8.0,8.0,30,0.00,,,0.00,TxWx,2013-01-31 19:15:00,
2013-01-31 13:16:00,64.0,32.0,30.25,SSE,157,8.0,8.0,31,0.00,,,0.00,TxWx,2013-01-31 19:16:00,
2013-01-31 13:20:00,64.0,30.0,30.25,ESE,112,9.0,9.0,29,0.00,,,0.00,TxWx,2013-01-31 19:20:00,
2013-01-31 13:21:00,64.0,29.0,30.25,ESE,112,8.0,8.0,28,0.00,,,0.00,TxWx,2013-01-31 19:21:00,
2013-01-31 13:22:00,64.0,28.0,30.25,East,90,8.0,9.0,27,0.00,,,0.00,TxWx,2013-01-31 19:22:00,
2013-01-31 13:23:00,64.0,28.0,30.24,SE,135,10.0,10.0,27,0.00,,,0.00,TxWx,2013-01-31 19:23:00,
2013-01-31 13:25:00,64.0,30.0,30.24,SE,135,5.0,6.0,29,0.00,,,0.00,TxWx,2013-01-31 19:25:00,
2013-01-31 13:27:00,64.0,29.0,30.24,SE,135,7.0,7.0,28,0.00,,,0.00,TxWx,2013-01-31 19:27:00,
2013-01-31 13:28:00,64.0,30.0,30.24,SE,135,7.0,8.0,29,0.00,,,0.00,TxWx,2013-01-31 19:28:00,
2013-01-31 13:29:00,64.0,29.0,30.24,SE,135,10.0,10.0,28,0.00,,,0.00,TxWx,2013-01-31 19:29:00,
2013-01-31 13:32:00,64.0,28.0,30.24,ESE,112,9.0,9.0,27,0.00,,,0.00,TxWx,2013-01-31 19:32:00,
2013-01-31 13:33:00,64.0,28.0,30.24,ESE,112,7.0,7.0,27,0.00,,,0.00,TxWx,2013-01-31 19:33:00,
2013-01-31 13:34:00,64.0,28.0,30.24,SE,135,11.0,11.0,27,0.00,,,0.00,TxWx,2013-01-31 19:34:00,
2013-01-31 13:36:00,64.0,29.0,30.24,ESE,112,10.0,10.0,28,0.00,,,0.00,TxWx,2013-01-31 19:36:00,
2013-01-31 13:39:00,64.0,29.0,30.24,SE,135,8.0,8.0,28,0.00,,,0.00,TxWx,2013-01-31 19:39:00,
2013-01-31 13:40:00,64.0,30.0,30.24,SE,135,7.0,8.0,29,0.00,,,0.00,TxWx,2013-01-31 19:40:00,
2013-01-31 13:41:00,65.0,32.0,30.24,SE,135,8.0,9.0,30,0.00,,,0.00,TxWx,2013-01-31 19:41:00,
2013-01-31 13:45:00,64.0,30.0,30.24,SE,135,5.0,6.0,29,0.00,,,0.00,TxWx,2013-01-31 19:45:00,
2013-01-31 13:50:00,65.0,30.0,30.24,East,90,6.0,6.0,28,0.00,,,0.00,TxWx,2013-01-31 19:50:00,
2013-01-31 13:51:00,65.0,30.0,30.24,SE,135,8.0,8.0,29,0.00,,,0.00,TxWx,2013-01-31 19:51:00,
2013-01-31 13:52:00,64.0,29.0,30.23,SE,135,14.0,14.0,28,0.00,,,0.00,TxWx,2013-01-31 19:52:00,
2013-01-31 13:56:00,64.0,29.0,30.23,SE,135,10.0,10.0,28,0.00,,,0.00,TxWx,2013-01-31 19:56:00,
2013-01-31 13:57:00,64.0,29.0,30.23,SE,135,9.0,9.0,28,0.00,,,0.00,TxWx,2013-01-31 19:57:00,
2013-01-31 13:59:00,65.0,30.0,30.23,SE,135,8.0,8.0,28,0.00,,,0.00,TxWx,2013-01-31 19:59:00,
2013-01-31 14:01:00,65.0,30.0,30.23,SE,135,12.0,12.0,28,0.00,,,0.00,TxWx,2013-01-31 20:01:00,
2013-01-31 14:02:00,65.0,30.0,30.23,SE,135,8.0,10.0,28,0.00,,,0.00,TxWx,2013-01-31 20:02:00,
2013-01-31 14:04:00,65.0,28.0,30.23,SSE,157,5.0,6.0,26,0.00,,,0.00,TxWx,2013-01-31 20:04:00,
2013-01-31 14:07:00,65.0,28.0,30.23,South,180,11.0,11.0,26,0.00,,,0.00,TxWx,2013-01-31 20:07:00,
2013-01-31 14:09:00,65.0,27.0,30.23,SSE,157,7.0,7.0,25,0.00,,,0.00,TxWx,2013-01-31 20:09:00,
2013-01-31 14:10:00,65.0,27.0,30.23,SE,135,10.0,11.0,25,0.00,,,0.00,TxWx,2013-01-31 20:10:00,
2013-01-31 14:11:00,65.0,28.0,30.23,SE,135,6.0,8.0,26,0.00,,,0.00,TxWx,2013-01-31 20:11:00,
2013-01-31 14:12:00,64.0,26.0,30.23,SSE,157,13.0,14.0,25,0.00,,,0.00,TxWx,2013-01-31 20:12:00,
2013-01-31 14:15:00,65.0,28.0,30.22,SSE,157,8.0,8.0,26,0.00,,,0.00,TxWx,2013-01-31 20:15:00,
2013-01-31 14:16:00,66.0,30.0,30.22,South,180,4.0,4.0,27,0.00,,,0.00,TxWx,2013-01-31 20:16:00,
2013-01-31 14:17:00,65.0,28.0,30.22,SSW,202,11.0,11.0,26,0.00,,,0.00,TxWx,2013-01-31 20:17:00,
2013-01-31 14:20:00,65.0,29.0,30.21,SE,135,11.0,11.0,27,0.00,,,0.00,TxWx,2013-01-31 20:20:00,
2013-01-31 14:21:00,65.0,29.0,30.21,SSE,157,13.0,13.0,27,0.00,,,0.00,TxWx,2013-01-31 20:21:00,
2013-01-31 14:22:00,65.0,29.0,30.21,SE,135,9.0,9.0,27,0.00,,,0.00,TxWx,2013-01-31 20:22:00,
2013-01-31 14:25:00,65.0,30.0,30.21,SE,135,11.0,11.0,29,0.00,,,0.00,TxWx,2013-01-31 20:25:00,
2013-01-31 14:26:00,65.0,30.0,30.21,SSW,202,6.0,7.0,28,0.00,,,0.00,TxWx,2013-01-31 20:26:00,
2013-01-31 14:27:00,65.0,30.0,30.21,SSE,157,11.0,11.0,28,0.00,,,0.00,TxWx,2013-01-31 20:27:00,
2013-01-31 14:32:00,66.0,30.0,30.21,SSE,157,5.0,6.0,28,0.00,,,0.00,TxWx,2013-01-31 20:32:00,
2013-01-31 14:34:00,66.0,30.0,30.21,SSE,157,12.0,14.0,28,0.00,,,0.00,TxWx,2013-01-31 20:34:00,
2013-01-31 14:38:00,65.0,30.0,30.21,SE,135,13.0,14.0,28,0.00,,,0.00,TxWx,2013-01-31 20:38:00,
2013-01-31 14:40:00,65.0,30.0,30.21,SSE,157,13.0,13.0,28,0.00,,,0.00,TxWx,2013-01-31 20:40:00,
2013-01-31 14:44:00,65.0,29.0,30.21,SE,135,7.0,8.0,27,0.00,,,0.00,TxWx,2013-01-31 20:44:00,
2013-01-31 14:45:00,64.0,27.0,30.21,SE,135,12.0,12.0,26,0.00,,,0.00,TxWx,2013-01-31 20:45:00,
2013-01-31 14:48:00,65.0,29.0,30.21,East,90,8.0,10.0,27,0.00,,,0.00,TxWx,2013-01-31 20:48:00,
2013-01-31 14:49:00,65.0,28.0,30.21,South,180,11.0,14.0,26,0.00,,,0.00,TxWx,2013-01-31 20:49:00,
2013-01-31 14:50:00,64.0,27.0,30.21,South,180,14.0,14.0,26,0.00,,,0.00,TxWx,2013-01-31 20:50:00,
2013-01-31 14:54:00,65.0,28.0,30.21,South,180,10.0,11.0,26,0.00,,,0.00,TxWx,2013-01-31 20:54:00,
2013-01-31 14:55:00,65.0,28.0,30.21,SE,135,8.0,10.0,26,0.00,,,0.00,TxWx,2013-01-31 20:55:00,
2013-01-31 15:00:00,65.0,30.0,30.21,SE,135,8.0,9.0,28,0.00,,,0.00,TxWx,2013-01-31 21:00:00,
2013-01-31 15:01:00,65.0,30.0,30.20,ESE,112,8.0,9.0,28,0.00,,,0.00,TxWx,2013-01-31 21:01:00,
2013-01-31 15:02:00,65.0,31.0,30.20,South,180,12.0,12.0,29,0.00,,,0.00,TxWx,2013-01-31 21:02:00,
2013-01-31 15:06:00,65.0,34.0,30.20,SE,135,15.0,15.0,32,0.00,,,0.00,TxWx,2013-01-31 21:06:00,
2013-01-31 15:07:00,65.0,34.0,30.20,SE,135,8.0,9.0,32,0.00,,,0.00,TxWx,2013-01-31 21:07:00,
2013-01-31 15:08:00,65.0,34.0,30.20,SSE,157,10.0,10.0,31,0.00,,,0.00,TxWx,2013-01-31 21:08:00,
2013-01-31 15:11:00,65.0,31.0,30.20,SE,135,10.0,11.0,29,0.00,,,0.00,TxWx,2013-01-31 21:11:00,
2013-01-31 15:12:00,64.0,30.0,30.20,SE,135,13.0,13.0,29,0.00,,,0.00,TxWx,2013-01-31 21:12:00,
2013-01-31 15:13:00,65.0,30.0,30.20,SSW,202,8.0,10.0,29,0.00,,,0.00,TxWx,2013-01-31 21:13:00,
2013-01-31 15:14:00,65.0,31.0,30.20,SSE,157,10.0,11.0,29,0.00,,,0.00,TxWx,2013-01-31 21:14:00,
2013-01-31 15:17:00,64.0,30.0,30.20,ESE,112,12.0,13.0,29,0.00,,,0.00,TxWx,2013-01-31 21:17:00,
2013-01-31 15:19:00,64.0,32.0,30.20,South,180,6.0,6.0,31,0.00,,,0.00,TxWx,2013-01-31 21:19:00,
2013-01-31 15:20:00,65.0,33.0,30.20,SSE,157,8.0,10.0,31,0.00,,,0.00,TxWx,2013-01-31 21:20:00,
2013-01-31 15:23:00,64.0,33.0,30.20,SE,135,12.0,12.0,32,0.00,,,0.00,TxWx,2013-01-31 21:23:00,
2013-01-31 15:24:00,64.0,33.0,30.20,SSE,157,7.0,10.0,32,0.00,,,0.00,TxWx,2013-01-31 21:24:00,
2013-01-31 15:25:00,64.0,33.0,30.20,SSE,157,8.0,8.0,32,0.00,,,0.00,TxWx,2013-01-31 21:25:00,
2013-01-31 15:26:00,64.0,33.0,30.20,SE,135,11.0,11.0,31,0.00,,,0.00,TxWx,2013-01-31 21:26:00,
2013-01-31 15:29:00,64.0,33.0,30.20,SSE,157,9.0,11.0,31,0.00,,,0.00,TxWx,2013-01-31 21:29:00,
2013-01-31 15:30:00,64.0,34.0,30.20,South,180,9.0,10.0,33,0.00,,,0.00,TxWx,2013-01-31 21:30:00,
2013-01-31 15:31:00,64.0,34.0,30.20,SSE,157,10.0,10.0,33,0.00,,,0.00,TxWx,2013-01-31 21:31:00,
2013-01-31 15:32:00,64.0,35.0,30.20,SSE,157,8.0,9.0,34,0.00,,,0.00,TxWx,2013-01-31 21:32:00,
2013-01-31 15:34:00,64.0,34.0,30.20,ESE,112,7.0,7.0,33,0.00,,,0.00,TxWx,2013-01-31 21:34:00,
2013-01-31 15:36:00,64.0,34.0,30.20,SSE,157,5.0,5.0,33,0.00,,,0.00,TxWx,2013-01-31 21:36:00,
2013-01-31 15:37:00,64.0,34.0,30.20,ESE,112,10.0,10.0,33,0.00,,,0.00,TxWx,2013-01-31 21:37:00,
2013-01-31 15:42:00,64.0,33.0,30.20,SSE,157,8.0,9.0,31,0.00,,,0.00,TxWx,2013-01-31 21:42:00,
2013-01-31 15:43:00,64.0,33.0,30.20,SSE,157,11.0,13.0,32,0.00,,,0.00,TxWx,2013-01-31 21:43:00,
2013-01-31 15:45:00,64.0,34.0,30.20,SSW,202,10.0,13.0,33,0.00,,,0.00,TxWx,2013-01-31 21:45:00,
2013-01-31 15:47:00,64.0,35.0,30.20,SSE,157,11.0,13.0,34,0.00,,,0.00,TxWx,2013-01-31 21:47:00,
2013-01-31 15:49:00,64.0,35.0,30.20,SE,135,5.0,6.0,35,0.00,,,0.00,TxWx,2013-01-31 21:49:00,
2013-01-31 15:50:00,64.0,35.0,30.20,SSW,202,10.0,11.0,34,0.00,,,0.00,TxWx,2013-01-31 21:50:00,
2013-01-31 15:52:00,64.0,35.0,30.21,SSE,157,9.0,10.0,35,0.00,,,0.00,TxWx,2013-01-31 21:52:00,
2013-01-31 15:53:00,64.0,36.0,30.20,South,180,13.0,14.0,35,0.00,,,0.00,TxWx,2013-01-31 21:53:00,
2013-01-31 15:54:00,64.0,36.0,30.20,SSE,157,11.0,11.0,35,0.00,,,0.00,TxWx,2013-01-31 21:54:00,
2013-01-31 15:55:00,64.0,35.0,30.20,SE,135,8.0,8.0,35,0.00,,,0.00,TxWx,2013-01-31 21:55:00,
2013-01-31 15:57:00,64.0,34.0,30.21,SSE,157,20.0,21.0,33,0.00,,,0.00,TxWx,2013-01-31 21:57:00,
2013-01-31 15:59:00,63.0,35.0,30.20,South,180,11.0,13.0,35,0.00,,,0.00,TxWx,2013-01-31 21:59:00,
2013-01-31 16:00:00,63.0,34.0,30.21,SSE,157,15.0,16.0,35,0.00,,,0.00,TxWx,2013-01-31 22:00:00,
2013-01-31 16:01:00,63.0,34.0,30.20,SSE,157,10.0,12.0,35,0.00,,,0.00,TxWx,2013-01-31 22:01:00,
2013-01-31 16:04:00,64.0,35.0,30.20,SSE,157,16.0,16.0,35,0.00,,,0.00,TxWx,2013-01-31 22:04:00,
2013-01-31 16:05:00,63.0,36.0,30.20,SSE,157,12.0,14.0,36,0.00,,,0.00,TxWx,2013-01-31 22:05:00,
2013-01-31 16:06:00,64.0,37.0,30.20,SSE,157,12.0,12.0,37,0.00,,,0.00,TxWx,2013-01-31 22:06:00,
2013-01-31 16:07:00,64.0,36.0,30.20,SE,135,10.0,10.0,36,0.00,,,0.00,TxWx,2013-01-31 22:07:00,
2013-01-31 16:10:00,64.0,36.0,30.20,SSE,157,12.0,12.0,36,0.00,,,0.00,TxWx,2013-01-31 22:10:00,
2013-01-31 16:11:00,64.0,36.0,30.20,SSE,157,10.0,11.0,36,0.00,,,0.00,TxWx,2013-01-31 22:11:00,
2013-01-31 16:13:00,64.0,37.0,30.20,ESE,112,14.0,16.0,37,0.00,,,0.00,TxWx,2013-01-31 22:13:00,
2013-01-31 16:15:00,63.0,36.0,30.20,SSE,157,13.0,13.0,37,0.00,,,0.00,TxWx,2013-01-31 22:15:00,
2013-01-31 16:16:00,63.0,36.0,30.20,South,180,12.0,12.0,36,0.00,,,0.00,TxWx,2013-01-31 22:16:00,
2013-01-31 16:17:00,63.0,36.0,30.19,South,180,8.0,9.0,37,0.00,,,0.00,TxWx,2013-01-31 22:17:00,
2013-01-31 16:21:00,63.0,36.0,30.20,South,180,8.0,8.0,37,0.00,,,0.00,TxWx,2013-01-31 22:21:00,
2013-01-31 16:22:00,63.0,36.0,30.20,SSE,157,13.0,13.0,37,0.00,,,0.00,TxWx,2013-01-31 22:22:00,
2013-01-31 16:23:00,63.0,37.0,30.20,South,180,10.0,10.0,38,0.00,,,0.00,TxWx,2013-01-31 22:23:00,
2013-01-31 16:24:00,63.0,37.0,30.20,South,180,8.0,8.0,38,0.00,,,0.00,TxWx,2013-01-31 22:24:00,
2013-01-31 16:26:00,63.0,37.0,30.20,South,180,7.0,9.0,39,0.00,,,0.00,TxWx,2013-01-31 22:26:00,
2013-01-31 16:27:00,63.0,38.0,30.20,SSW,202,11.0,11.0,39,0.00,,,0.00,TxWx,2013-01-31 22:27:00,
2013-01-31 16:29:00,64.0,38.0,30.20,SE,135,7.0,7.0,39,0.00,,,0.00,TxWx,2013-01-31 22:29:00,
2013-01-31 16:30:00,63.0,37.0,30.20,South,180,12.0,14.0,39,0.00,,,0.00,TxWx,2013-01-31 22:30:00,
2013-01-31 16:32:00,63.0,38.0,30.20,South,180,10.0,11.0,39,0.00,,,0.00,TxWx,2013-01-31 22:32:00,
2013-01-31 16:33:00,63.0,38.0,30.20,SSE,157,12.0,12.0,39,0.00,,,0.00,TxWx,2013-01-31 22:33:00,
2013-01-31 16:36:00,63.0,38.0,30.20,South,180,9.0,10.0,40,0.00,,,0.00,TxWx,2013-01-31 22:36:00,
2013-01-31 16:38:00,63.0,39.0,30.20,SSE,157,13.0,14.0,41,0.00,,,0.00,TxWx,2013-01-31 22:38:00,
2013-01-31 16:39:00,63.0,39.0,30.20,SSE,157,14.0,14.0,41,0.00,,,0.00,TxWx,2013-01-31 22:39:00,
2013-01-31 16:42:00,63.0,38.0,30.20,South,180,13.0,13.0,40,0.00,,,0.00,TxWx,2013-01-31 22:42:00,
2013-01-31 16:43:00,63.0,38.0,30.20,SSE,157,15.0,15.0,40,0.00,,,0.00,TxWx,2013-01-31 22:43:00,
2013-01-31 16:45:00,63.0,39.0,30.20,SSE,157,14.0,15.0,41,0.00,,,0.00,TxWx,2013-01-31 22:45:00,
2013-01-31 16:46:00,63.0,39.0,30.20,SSE,157,10.0,11.0,41,0.00,,,0.00,TxWx,2013-01-31 22:46:00,
2013-01-31 16:48:00,63.0,39.0,30.20,WSW,247,3.0,3.0,41,0.00,,,0.00,TxWx,2013-01-31 22:48:00,
2013-01-31 16:50:00,63.0,39.0,30.20,SSE,157,6.0,7.0,41,0.00,,,0.00,TxWx,2013-01-31 22:50:00,
2013-01-31 16:51:00,63.0,39.0,30.20,SSE,157,14.0,14.0,41,0.00,,,0.00,TxWx,2013-01-31 22:51:00,
2013-01-31 16:54:00,63.0,39.0,30.20,South,180,7.0,7.0,42,0.00,,,0.00,TxWx,2013-01-31 22:54:00,
2013-01-31 16:55:00,63.0,39.0,30.20,SE,135,13.0,16.0,42,0.00,,,0.00,TxWx,2013-01-31 22:55:00,
2013-01-31 16:56:00,63.0,39.0,30.20,SSE,157,10.0,11.0,42,0.00,,,0.00,TxWx,2013-01-31 22:56:00,
2013-01-31 16:57:00,63.0,39.0,30.19,SE,135,14.0,14.0,42,0.00,,,0.00,TxWx,2013-01-31 22:57:00,
2013-01-31 17:00:00,62.0,38.0,30.19,SSE,157,16.0,16.0,42,0.00,,,0.00,TxWx,2013-01-31 23:00:00,
2013-01-31 17:02:00,62.0,39.0,30.19,South,180,8.0,10.0,42,0.00,,,0.00,TxWx,2013-01-31 23:02:00,
2013-01-31 17:03:00,62.0,39.0,30.19,SSE,157,9.0,10.0,42,0.00,,,0.00,TxWx,2013-01-31 23:03:00,
2013-01-31 17:05:00,62.0,39.0,30.19,SSE,157,10.0,10.0,43,0.00,,,0.00,TxWx,2013-01-31 23:05:00,
2013-01-31 17:08:00,62.0,39.0,30.20,SSE,157,5.0,6.0,43,0.00,,,0.00,TxWx,2013-01-31 23:08:00,
2013-01-31 17:09:00,62.0,39.0,30.20,South,180,11.0,12.0,43,0.00,,,0.00,TxWx,2013-01-31 23:09:00,
2013-01-31 17:11:00,62.0,39.0,30.20,SE,135,10.0,11.0,43,0.00,,,0.00,TxWx,2013-01-31 23:11:00,
2013-01-31 17:13:00,62.0,39.0,30.20,SSE,157,12.0,13.0,43,0.00,,,0.00,TxWx,2013-01-31 23:13:00,
2013-01-31 17:16:00,62.0,39.0,30.20,SE,135,7.0,7.0,44,0.00,,,0.00,TxWx,2013-01-31 23:16:00,
2013-01-31 17:17:00,62.0,39.0,30.20,ESE,112,10.0,10.0,44,0.00,,,0.00,TxWx,2013-01-31 23:17:00,
2013-01-31 17:18:00,62.0,39.0,30.20,SE,135,9.0,9.0,44,0.00,,,0.00,TxWx,2013-01-31 23:18:00,
2013-01-31 17:21:00,62.0,39.0,30.20,SSE,157,8.0,8.0,44,0.00,,,0.00,TxWx,2013-01-31 23:21:00,
2013-01-31 17:23:00,62.0,39.0,30.20,SSE,157,11.0,11.0,44,0.00,,,0.00,TxWx,2013-01-31 23:23:00,
2013-01-31 17:27:00,62.0,39.0,30.20,SE,135,11.0,14.0,44,0.00,,,0.00,TxWx,2013-01-31 23:27:00,
2013-01-31 17:28:00,62.0,40.0,30.20,SSE,157,11.0,11.0,44,0.00,,,0.00,TxWx,2013-01-31 23:28:00,
2013-01-31 17:29:00,62.0,40.0,30.20,SSE,157,14.0,14.0,44,0.00,,,0.00,TxWx,2013-01-31 23:29:00,
2013-01-31 17:32:00,62.0,40.0,30.20,SSE,157,7.0,7.0,45,0.00,,,0.00,TxWx,2013-01-31 23:32:00,
2013-01-31 17:33:00,62.0,40.0,30.20,SSE,157,8.0,8.0,45,0.00,,,0.00,TxWx,2013-01-31 23:33:00,
2013-01-31 17:35:00,62.0,40.0,30.20,SSE,157,10.0,10.0,45,0.00,,,0.00,TxWx,2013-01-31 23:35:00,
2013-01-31 17:38:00,62.0,40.0,30.20,SSE,157,6.0,6.0,45,0.00,,,0.00,TxWx,2013-01-31 23:38:00,
2013-01-31 17:39:00,62.0,41.0,30.20,SSE,157,10.0,10.0,46,0.00,,,0.00,TxWx,2013-01-31 23:39:00,
2013-01-31 17:41:00,62.0,41.0,30.20,SSW,202,5.0,5.0,46,0.00,,,0.00,TxWx,2013-01-31 23:41:00,
2013-01-31 17:43:00,62.0,41.0,30.20,SSE,157,11.0,11.0,46,0.00,,,0.00,TxWx,2013-01-31 23:43:00,
2013-01-31 17:44:00,62.0,41.0,30.20,South,180,8.0,11.0,46,0.00,,,0.00,TxWx,2013-01-31 23:44:00,
2013-01-31 17:47:00,62.0,41.0,30.21,SSE,157,11.0,11.0,46,0.00,,,0.00,TxWx,2013-01-31 23:47:00,
2013-01-31 17:48:00,62.0,41.0,30.20,SSE,157,11.0,12.0,46,0.00,,,0.00,TxWx,2013-01-31 23:48:00,
2013-01-31 17:49:00,62.0,41.0,30.20,SSE,157,9.0,9.0,46,0.00,,,0.00,TxWx,2013-01-31 23:49:00,
2013-01-31 17:50:00,62.0,41.0,30.20,SSE,157,8.0,8.0,47,0.00,,,0.00,TxWx,2013-01-31 23:50:00,
2013-01-31 17:54:00,61.0,40.0,30.20,SSE,157,5.0,6.0,47,0.00,,,0.00,TxWx,2013-01-31 23:54:00,
2013-01-31 17:56:00,61.0,40.0,30.20,SSE,157,13.0,13.0,47,0.00,,,0.00,TxWx,2013-01-31 23:56:00,
2013-01-31 17:59:00,61.0,41.0,30.19,SE,135,10.0,10.0,48,0.00,,,0.00,TxWx,2013-01-31 23:59:00,
2013-01-31 18:00:00,61.0,41.0,30.19,SSE,157,10.0,10.0,48,0.00,,,0.00,TxWx,2013-02-01 00:00:00,
2013-01-31 18:02:00,61.0,41.0,30.19,SE,135,9.0,11.0,48,0.00,,,0.00,TxWx,2013-02-01 00:02:00,
2013-01-31 18:03:00,61.0,41.0,30.19,SSW,202,9.0,11.0,48,0.00,,,0.00,TxWx,2013-02-01 00:03:00,
2013-01-31 18:05:00,61.0,41.0,30.19,SSE,157,6.0,6.0,49,0.00,,,0.00,TxWx,2013-02-01 00:05:00,
2013-01-31 18:06:00,61.0,42.0,30.19,SSE,157,8.0,11.0,49,0.00,,,0.00,TxWx,2013-02-01 00:06:00,
2013-01-31 18:08:00,61.0,42.0,30.20,SE,135,8.0,8.0,49,0.00,,,0.00,TxWx,2013-02-01 00:08:00,
2013-01-31 18:09:00,61.0,42.0,30.20,SE,135,4.0,4.0,50,0.00,,,0.00,TxWx,2013-02-01 00:09:00,
2013-01-31 18:10:00,61.0,42.0,30.20,SSE,157,10.0,10.0,50,0.00,,,0.00,TxWx,2013-02-01 00:10:00,
2013-01-31 18:11:00,61.0,42.0,30.20,SSE,157,6.0,7.0,50,0.00,,,0.00,TxWx,2013-02-01 00:11:00,
2013-01-31 18:15:00,61.0,42.0,30.20,South,180,8.0,8.0,51,0.00,,,0.00,TxWx,2013-02-01 00:15:00,
2013-01-31 18:17:00,61.0,43.0,30.20,SE,135,5.0,6.0,51,0.00,,,0.00,TxWx,2013-02-01 00:17:00,
2013-01-31 18:20:00,61.0,43.0,30.20,SSE,157,11.0,12.0,52,0.00,,,0.00,TxWx,2013-02-01 00:20:00,
2013-01-31 18:22:00,61.0,43.0,30.20,SSE,157,10.0,10.0,52,0.00,,,0.00,TxWx,2013-02-01 00:22:00,
2013-01-31 18:24:00,60.0,42.0,30.20,SE,135,6.0,6.0,52,0.00,,,0.00,TxWx,2013-02-01 00:24:00,
2013-01-31 18:26:00,60.0,42.0,30.20,SSE,157,10.0,10.0,52,0.00,,,0.00,TxWx,2013-02-01 00:26:00,
2013-01-31 18:27:00,60.0,43.0,30.20,SSE,157,10.0,10.0,53,0.00,,,0.00,TxWx,2013-02-01 00:27:00,
2013-01-31 18:29:00,61.0,43.0,30.21,SSE,157,9.0,10.0,53,0.00,,,0.00,TxWx,2013-02-01 00:29:00,
2013-01-31 18:30:00,60.0,43.0,30.20,SSE,157,6.0,8.0,53,0.00,,,0.00,TxWx,2013-02-01 00:30:00,
2013-01-31 18:31:00,60.0,43.0,30.20,SSE,157,8.0,8.0,53,0.00,,,0.00,TxWx,2013-02-01 00:31:00,
2013-01-31 18:33:00,60.0,43.0,30.20,SE,135,5.0,6.0,53,0.00,,,0.00,TxWx,2013-02-01 00:33:00,
2013-01-31 18:35:00,60.0,43.0,30.20,SSE,157,8.0,9.0,54,0.00,,,0.00,TxWx,2013-02-01 00:35:00,
2013-01-31 18:36:00,60.0,43.0,30.20,SE,135,5.0,5.0,54,0.00,,,0.00,TxWx,2013-02-01 00:36:00,
2013-01-31 18:37:00,60.0,43.0,30.20,SE,135,5.0,5.0,54,0.00,,,0.00,TxWx,2013-02-01 00:37:00,
2013-01-31 18:39:00,60.0,43.0,30.20,SSE,157,7.0,8.0,54,0.00,,,0.00,TxWx,2013-02-01 00:39:00,
2013-01-31 18:42:00,60.0,44.0,30.20,SSE,157,6.0,6.0,55,0.00,,,0.00,TxWx,2013-02-01 00:42:00,
2013-01-31 18:44:00,60.0,44.0,30.20,South,180,6.0,6.0,55,0.00,,,0.00,TxWx,2013-02-01 00:44:00,
2013-01-31 18:46:00,60.0,44.0,30.20,SE,135,7.0,7.0,55,0.00,,,0.00,TxWx,2013-02-01 00:46:00,
2013-01-31 18:48:00,60.0,44.0,30.20,SSW,202,8.0,8.0,55,0.00,,,0.00,TxWx,2013-02-01 00:48:00,
2013-01-31 18:49:00,60.0,44.0,30.20,SSE,157,7.0,7.0,55,0.00,,,0.00,TxWx,2013-02-01 00:49:00,
2013-01-31 18:50:00,60.0,44.0,30.20,SSE,157,8.0,8.0,56,0.00,,,0.00,TxWx,2013-02-01 00:50:00,
2013-01-31 18:51:00,60.0,44.0,30.20,SSE,157,6.0,6.0,56,0.00,,,0.00,TxWx,2013-02-01 00:51:00,
2013-01-31 18:54:00,60.0,44.0,30.21,SSE,157,3.0,4.0,56,0.00,,,0.00,TxWx,2013-02-01 00:54:00,
2013-01-31 18:55:00,60.0,44.0,30.21,South,180,4.0,5.0,56,0.00,,,0.00,TxWx,2013-02-01 00:55:00,
2013-01-31 18:56:00,60.0,44.0,30.21,SSE,157,7.0,10.0,56,0.00,,,0.00,TxWx,2013-02-01 00:56:00,
2013-01-31 18:59:00,60.0,44.0,30.21,South,180,6.0,7.0,56,0.00,,,0.00,TxWx,2013-02-01 00:59:00,
2013-01-31 19:01:00,60.0,44.0,30.21,SSW,202,5.0,5.0,56,0.00,,,0.00,TxWx,2013-02-01 01:01:00,
2013-01-31 19:04:00,60.0,44.0,30.21,SSE,157,6.0,6.0,57,0.00,,,0.00,TxWx,2013-02-01 01:04:00,
2013-01-31 19:06:00,60.0,45.0,30.21,South,180,6.0,6.0,57,0.00,,,0.00,TxWx,2013-02-01 01:06:00,
2013-01-31 19:07:00,60.0,45.0,30.20,South,180,5.0,6.0,57,0.00,,,0.00,TxWx,2013-02-01 01:07:00,
2013-01-31 19:08:00,60.0,45.0,30.21,SSE,157,4.0,4.0,58,0.00,,,0.00,TxWx,2013-02-01 01:08:00,
2013-01-31 19:10:00,59.0,44.0,30.21,SE,135,5.0,6.0,58,0.00,,,0.00,TxWx,2013-02-01 01:10:00,
2013-01-31 19:13:00,60.0,45.0,30.21,SSE,157,3.0,3.0,59,0.00,,,0.00,TxWx,2013-02-01 01:13:00,
2013-01-31 19:14:00,60.0,45.0,30.21,SSE,157,6.0,6.0,59,0.00,,,0.00,TxWx,2013-02-01 01:14:00,
2013-01-31 19:15:00,59.0,44.0,30.22,SE,135,5.0,5.0,59,0.00,,,0.00,TxWx,2013-02-01 01:15:00,
2013-01-31 19:16:00,59.0,44.0,30.22,SE,135,3.0,4.0,59,0.00,,,0.00,TxWx,2013-02-01 01:16:00,
2013-01-31 19:19:00,59.0,45.0,30.22,SSE,157,5.0,6.0,59,0.00,,,0.00,TxWx,2013-02-01 01:19:00,
2013-01-31 19:20:00,59.0,45.0,30.22,South,180,6.0,6.0,60,0.00,,,0.00,TxWx,2013-02-01 01:20:00,
2013-01-31 19:21:00,59.0,45.0,30.22,SSW,202,6.0,6.0,60,0.00,,,0.00,TxWx,2013-02-01 01:21:00,
2013-01-31 19:23:00,59.0,45.0,30.22,SSE,157,6.0,6.0,60,0.00,,,0.00,TxWx,2013-02-01 01:23:00,
2013-01-31 19:25:00,59.0,45.0,30.22,South,180,5.0,6.0,60,0.00,,,0.00,TxWx,2013-02-01 01:25:00,
2013-01-31 19:26:00,59.0,45.0,30.22,SSE,157,5.0,5.0,60,0.00,,,0.00,TxWx,2013-02-01 01:26:00,
2013-01-31 19:29:00,59.0,45.0,30.22,South,180,5.0,5.0,61,0.00,,,0.00,TxWx,2013-02-01 01:29:00,
2013-01-31 19:30:00,59.0,45.0,30.22,South,180,6.0,6.0,61,0.00,,,0.00,TxWx,2013-02-01 01:30:00,
2013-01-31 19:32:00,59.0,46.0,30.22,SW,225,6.0,6.0,61,0.00,,,0.00,TxWx,2013-02-01 01:32:00,
2013-01-31 19:35:00,59.0,46.0,30.22,SSE,157,6.0,6.0,62,0.00,,,0.00,TxWx,2013-02-01 01:35:00,
2013-01-31 19:36:00,59.0,46.0,30.22,South,180,6.0,7.0,62,0.00,,,0.00,TxWx,2013-02-01 01:36:00,
2013-01-31 19:37:00,59.0,46.0,30.22,SSW,202,5.0,5.0,62,0.00,,,0.00,TxWx,2013-02-01 01:37:00,
2013-01-31 19:39:00,59.0,46.0,30.22,South,180,6.0,6.0,62,0.00,,,0.00,TxWx,2013-02-01 01:39:00,
2013-01-31 19:41:00,59.0,46.0,30.22,South,180,5.0,5.0,62,0.00,,,0.00,TxWx,2013-02-01 01:41:00,
2013-01-31 19:42:00,59.0,46.0,30.22,South,180,6.0,6.0,62,0.00,,,0.00,TxWx,2013-02-01 01:42:00,
2013-01-31 19:45:00,59.0,46.0,30.23,South,180,5.0,5.0,62,0.00,,,0.00,TxWx,2013-02-01 01:45:00,
2013-01-31 19:46:00,59.0,46.0,30.23,SSE,157,4.0,5.0,62,0.00,,,0.00,TxWx,2013-02-01 01:46:00,
2013-01-31 19:47:00,59.0,46.0,30.23,SSW,202,4.0,4.0,62,0.00,,,0.00,TxWx,2013-02-01 01:47:00,
2013-01-31 19:49:00,59.0,46.0,30.23,SW,225,3.0,3.0,62,0.00,,,0.00,TxWx,2013-02-01 01:49:00,
2013-01-31 19:51:00,59.0,46.0,30.23,SSE,157,5.0,5.0,63,0.00,,,0.00,TxWx,2013-02-01 01:51:00,
2013-01-31 19:52:00,59.0,46.0,30.23,SE,135,5.0,6.0,63,0.00,,,0.00,TxWx,2013-02-01 01:52:00,
2013-01-31 19:57:00,59.0,46.0,30.24,South,180,3.0,3.0,63,0.00,,,0.00,TxWx,2013-02-01 01:57:00,
2013-01-31 19:58:00,59.0,46.0,30.24,SSE,157,4.0,5.0,63,0.00,,,0.00,TxWx,2013-02-01 01:58:00,
2013-01-31 20:00:00,59.0,46.0,30.24,South,180,5.0,5.0,63,0.00,,,0.00,TxWx,2013-02-01 02:00:00,
2013-01-31 20:02:00,59.0,46.0,30.24,South,180,2.0,2.0,63,0.00,,,0.00,TxWx,2013-02-01 02:02:00,
2013-01-31 20:03:00,59.0,46.0,30.24,South,180,5.0,5.0,63,0.00,,,0.00,TxWx,2013-02-01 02:03:00,
2013-01-31 20:04:00,59.0,46.0,30.24,SSW,202,4.0,4.0,63,0.00,,,0.00,TxWx,2013-02-01 02:04:00,
2013-01-31 20:06:00,59.0,46.0,30.24,SSE,157,3.0,3.0,63,0.00,,,0.00,TxWx,2013-02-01 02:06:00,
2013-01-31 20:07:00,59.0,46.0,30.24,SSE,157,5.0,5.0,63,0.00,,,0.00,TxWx,2013-02-01 02:07:00,
2013-01-31 20:08:00,59.0,46.0,30.24,South,180,5.0,6.0,63,0.00,,,0.00,TxWx,2013-02-01 02:08:00,
2013-01-31 20:11:00,59.0,46.0,30.24,SSE,157,6.0,6.0,63,0.00,,,0.00,TxWx,2013-02-01 02:11:00,
2013-01-31 20:13:00,59.0,46.0,30.24,South,180,5.0,6.0,63,0.00,,,0.00,TxWx,2013-02-01 02:13:00,
2013-01-31 20:16:00,59.0,46.0,30.23,South,180,5.0,5.0,63,0.00,,,0.00,TxWx,2013-02-01 02:16:00,
2013-01-31 20:17:00,59.0,46.0,30.24,SSE,157,5.0,6.0,63,0.00,,,0.00,TxWx,2013-02-01 02:17:00,
2013-01-31 20:18:00,59.0,46.0,30.24,South,180,4.0,5.0,63,0.00,,,0.00,TxWx,2013-02-01 02:18:00,
2013-01-31 20:23:00,59.0,46.0,30.24,SSE,157,3.0,3.0,63,0.00,,,0.00,TxWx,2013-02-01 02:23:00,
2013-01-31 20:24:00,59.0,47.0,30.24,South,180,3.0,3.0,64,0.00,,,0.00,TxWx,2013-02-01 02:24:00,
2013-01-31 20:27:00,59.0,46.0,30.24,South,180,7.0,8.0,63,0.00,,,0.00,TxWx,2013-02-01 02:27:00,
2013-01-31 20:29:00,59.0,46.0,30.24,SSE,157,5.0,6.0,63,0.00,,,0.00,TxWx,2013-02-01 02:29:00,
2013-01-31 20:32:00,59.0,46.0,30.24,South,180,5.0,5.0,63,0.00,,,0.00,TxWx,2013-02-01 02:32:00,
2013-01-31 20:33:00,59.0,46.0,30.25,SSE,157,5.0,5.0,63,0.00,,,0.00,TxWx,2013-02-01 02:33:00,
2013-01-31 20:35:00,59.0,46.0,30.25,SSE,157,5.0,5.0,63,0.00,,,0.00,TxWx,2013-02-01 02:35:00,
2013-01-31 20:36:00,59.0,46.0,30.25,SSE,157,6.0,6.0,63,0.00,,,0.00,TxWx,2013-02-01 02:36:00,
2013-01-31 20:37:00,59.0,46.0,30.25,South,180,3.0,4.0,63,0.00,,,0.00,TxWx,2013-02-01 02:37:00,
2013-01-31 20:39:00,59.0,47.0,30.24,South,180,6.0,6.0,64,0.00,,,0.00,TxWx,2013-02-01 02:39:00,
2013-01-31 20:40:00,59.0,47.0,30.24,South,180,4.0,5.0,64,0.00,,,0.00,TxWx,2013-02-01 02:40:00,
2013-01-31 20:43:00,59.0,47.0,30.24,South,180,6.0,6.0,64,0.00,,,0.00,TxWx,2013-02-01 02:43:00,
2013-01-31 20:45:00,59.0,47.0,30.24,SSW,202,4.0,4.0,64,0.00,,,0.00,TxWx,2013-02-01 02:45:00,
2013-01-31 20:48:00,59.0,47.0,30.25,SSE,157,4.0,4.0,64,0.00,,,0.00,TxWx,2013-02-01 02:48:00,
2013-01-31 20:49:00,59.0,47.0,30.25,South,180,2.0,2.0,64,0.00,,,0.00,TxWx,2013-02-01 02:49:00,
2013-01-31 20:50:00,59.0,47.0,30.25,South,180,4.0,4.0,64,0.00,,,0.00,TxWx,2013-02-01 02:50:00,
2013-01-31 20:51:00,59.0,47.0,30.25,SSW,202,4.0,4.0,64,0.00,,,0.00,TxWx,2013-02-01 02:51:00,
2013-01-31 20:55:00,59.0,47.0,30.25,SSE,157,5.0,5.0,65,0.00,,,0.00,TxWx,2013-02-01 02:55:00,
2013-01-31 20:56:00,59.0,47.0,30.25,SE,135,4.0,4.0,65,0.00,,,0.00,TxWx,2013-02-01 02:56:00,
2013-01-31 20:57:00,59.0,47.0,30.25,South,180,4.0,4.0,65,0.00,,,0.00,TxWx,2013-02-01 02:57:00,
2013-01-31 21:00:00,59.0,47.0,30.25,South,180,3.0,3.0,65,0.00,,,0.00,TxWx,2013-02-01 03:00:00,
2013-01-31 21:02:00,59.0,47.0,30.25,South,180,3.0,3.0,65,0.00,,,0.00,TxWx,2013-02-01 03:02:00,
2013-01-31 21:05:00,59.0,47.0,30.26,South,180,2.0,3.0,65,0.00,,,0.00,TxWx,2013-02-01 03:05:00,
2013-01-31 21:07:00,59.0,47.0,30.25,South,180,4.0,4.0,65,0.00,,,0.00,TxWx,2013-02-01 03:07:00,
2013-01-31 21:08:00,59.0,47.0,30.25,South,180,5.0,5.0,65,0.00,,,0.00,TxWx,2013-02-01 03:08:00,
2013-01-31 21:10:00,59.0,47.0,30.25,South,180,4.0,4.0,65,0.00,,,0.00,TxWx,2013-02-01 03:10:00,
2013-01-31 21:11:00,59.0,47.0,30.25,SE,135,4.0,5.0,65,0.00,,,0.00,TxWx,2013-02-01 03:11:00,
2013-01-31 21:13:00,59.0,47.0,30.25,SSE,157,5.0,5.0,65,0.00,,,0.00,TxWx,2013-02-01 03:13:00,
2013-01-31 21:14:00,59.0,47.0,30.26,SSE,157,3.0,4.0,65,0.00,,,0.00,TxWx,2013-02-01 03:14:00,
2013-01-31 21:17:00,59.0,47.0,30.26,SSE,157,3.0,3.0,65,0.00,,,0.00,TxWx,2013-02-01 03:17:00,
2013-01-31 21:18:00,59.0,47.0,30.26,SE,135,5.0,5.0,65,0.00,,,0.00,TxWx,2013-02-01 03:18:00,
2013-01-31 21:19:00,59.0,47.0,30.26,South,180,3.0,4.0,65,0.00,,,0.00,TxWx,2013-02-01 03:19:00,
2013-01-31 21:21:00,59.0,47.0,30.26,SSW,202,3.0,3.0,65,0.00,,,0.00,TxWx,2013-02-01 03:21:00,
2013-01-31 21:23:00,59.0,47.0,30.26,South,180,3.0,3.0,65,0.00,,,0.00,TxWx,2013-02-01 03:23:00,
2013-01-31 21:25:00,59.0,47.0,30.26,SSW,202,3.0,3.0,65,0.00,,,0.00,TxWx,2013-02-01 03:25:00,
2013-01-31 21:26:00,59.0,47.0,30.26,SSW,202,3.0,3.0,65,0.00,,,0.00,TxWx,2013-02-01 03:26:00,
2013-01-31 21:30:00,59.0,47.0,30.26,South,180,3.0,3.0,66,0.00,,,0.00,TxWx,2013-02-01 03:30:00,
2013-01-31 21:32:00,59.0,47.0,30.26,SE,135,3.0,3.0,66,0.00,,,0.00,TxWx,2013-02-01 03:32:00,
2013-01-31 21:35:00,59.0,48.0,30.26,SSE,157,2.0,2.0,66,0.00,,,0.00,TxWx,2013-02-01 03:35:00,
2013-01-31 21:36:00,59.0,48.0,30.26,SSE,157,3.0,3.0,66,0.00,,,0.00,TxWx,2013-02-01 03:36:00,
2013-01-31 21:39:00,59.0,48.0,30.27,South,180,4.0,5.0,67,0.00,,,0.00,TxWx,2013-02-01 03:39:00,
2013-01-31 21:40:00,59.0,48.0,30.26,SSW,202,3.0,3.0,67,0.00,,,0.00,TxWx,2013-02-01 03:40:00,
2013-01-31 21:41:00,59.0,48.0,30.26,South,180,4.0,4.0,67,0.00,,,0.00,TxWx,2013-02-01 03:41:00,
2013-01-31 21:46:00,59.0,48.0,30.27,SSW,202,4.0,4.0,67,0.00,,,0.00,TxWx,2013-02-01 03:46:00,
2013-01-31 21:47:00,59.0,48.0,30.27,South,180,3.0,3.0,67,0.00,,,0.00,TxWx,2013-02-01 03:47:00,
2013-01-31 21:49:00,59.0,48.0,30.27,SSW,202,5.0,5.0,68,0.00,,,0.00,TxWx,2013-02-01 03:49:00,
2013-01-31 21:51:00,59.0,48.0,30.26,SSW,202,3.0,3.0,68,0.00,,,0.00,TxWx,2013-02-01 03:51:00,
2013-01-31 21:52:00,59.0,48.0,30.27,SW,225,2.0,3.0,68,0.00,,,0.00,TxWx,2013-02-01 03:52:00,
2013-01-31 21:53:00,59.0,49.0,30.27,SW,225,5.0,5.0,69,0.00,,,0.00,TxWx,2013-02-01 03:53:00,
2013-01-31 21:56:00,59.0,49.0,30.26,SSW,202,4.0,4.0,69,0.00,,,0.00,TxWx,2013-02-01 03:56:00,
2013-01-31 21:58:00,59.0,49.0,30.26,SSE,157,3.0,3.0,69,0.00,,,0.00,TxWx,2013-02-01 03:58:00,
2013-01-31 21:59:00,58.0,50.0,30.26,SSE,157,3.0,4.0,74,0.00,,,0.00,TxWx,2013-02-01 03:59:00,
2013-01-31 22:00:00,58.0,50.0,30.26,SSE,157,3.0,3.0,74,0.00,,,0.00,TxWx,2013-02-01 04:00:00,
2013-01-31 22:01:00,58.0,48.0,30.26,SSW,202,3.0,3.0,70,0.00,,,0.00,TxWx,2013-02-01 04:01:00,
2013-01-31 22:02:00,58.0,48.0,30.26,SSW,202,3.0,3.0,70,0.00,,,0.00,TxWx,2013-02-01 04:02:00,
2013-01-31 22:03:00,59.0,49.0,30.26,SSW,202,3.0,3.0,70,0.00,,,0.00,TxWx,2013-02-01 04:03:00,
2013-01-31 22:04:00,58.0,50.0,30.26,South,180,3.0,3.0,74,0.00,,,0.00,TxWx,2013-02-01 04:04:00,
2013-01-31 22:05:00,59.0,49.0,30.26,SSW,202,3.0,3.0,70,0.00,,,0.00,TxWx,2013-02-01 04:05:00,
2013-01-31 22:06:00,58.0,50.0,30.26,South,180,3.0,3.0,75,0.00,,,0.00,TxWx,2013-02-01 04:06:00,
2013-01-31 22:07:00,58.0,50.0,30.26,SSW,202,3.0,3.0,75,0.00,,,0.00,TxWx,2013-02-01 04:07:00,
2013-01-31 22:08:00,58.0,48.0,30.26,South,180,3.0,3.0,70,0.00,,,0.00,TxWx,2013-02-01 04:08:00,
2013-01-31 22:09:00,58.0,48.0,30.26,South,180,5.0,5.0,70,0.00,,,0.00,TxWx,2013-02-01 04:09:00,
2013-01-31 22:10:00,58.0,50.0,30.27,South,180,3.0,3.0,75,0.00,,,0.00,TxWx,2013-02-01 04:10:00,
2013-01-31 22:11:00,58.0,48.0,30.26,SSW,202,3.0,3.0,70,0.00,,,0.00,TxWx,2013-02-01 04:11:00,
2013-01-31 22:12:00,58.0,50.0,30.27,SSE,157,3.0,3.0,75,0.00,,,0.00,TxWx,2013-02-01 04:12:00,
2013-01-31 22:13:00,58.0,50.0,30.27,SSE,157,3.0,3.0,75,0.00,,,0.00,TxWx,2013-02-01 04:13:00,
2013-01-31 22:14:00,58.0,48.0,30.26,South,180,3.0,3.0,70,0.00,,,0.00,TxWx,2013-02-01 04:14:00,
2013-01-31 22:15:00,58.0,50.0,30.27,SSW,202,3.0,3.0,75,0.00,,,0.00,TxWx,2013-02-01 04:15:00,
2013-01-31 22:16:00,58.0,48.0,30.26,SSW,202,4.0,4.0,70,0.00,,,0.00,TxWx,2013-02-01 04:16:00,
2013-01-31 22:17:00,58.0,48.0,30.26,South,180,5.0,5.0,70,0.00,,,0.00,TxWx,2013-02-01 04:17:00,
2013-01-31 22:18:00,58.0,50.0,30.27,SSW,202,5.0,5.0,75,0.00,,,0.00,TxWx,2013-02-01 04:18:00,
2013-01-31 22:19:00,58.0,50.0,30.27,SSW,202,4.0,5.0,75,0.00,,,0.00,TxWx,2013-02-01 04:19:00,
2013-01-31 22:20:00,58.0,48.0,30.26,South,180,3.0,3.0,71,0.00,,,0.00,TxWx,2013-02-01 04:20:00,
2013-01-31 22:21:00,58.0,48.0,30.26,SSW,202,2.0,3.0,71,0.00,,,0.00,TxWx,2013-02-01 04:21:00,
2013-01-31 22:22:00,58.0,50.0,30.26,South,180,4.0,4.0,75,0.00,,,0.00,TxWx,2013-02-01 04:22:00,
2013-01-31 22:23:00,58.0,50.0,30.27,South,180,4.0,4.0,75,0.00,,,0.00,TxWx,2013-02-01 04:23:00,
2013-01-31 22:24:00,58.0,49.0,30.26,SSE,157,3.0,5.0,71,0.00,,,0.00,TxWx,2013-02-01 04:24:00,
2013-01-31 22:25:00,59.0,50.0,30.26,South,180,3.0,3.0,71,0.00,,,0.00,TxWx,2013-02-01 04:25:00,
2013-01-31 22:26:00,59.0,50.0,30.26,South,180,4.0,4.0,71,0.00,,,0.00,TxWx,2013-02-01 04:26:00,
2013-01-31 22:27:00,58.0,50.0,30.27,South,180,3.0,3.0,75,0.00,,,0.00,TxWx,2013-02-01 04:27:00,
2013-01-31 22:29:00,58.0,49.0,30.26,SSW,202,4.0,5.0,72,0.00,,,0.00,TxWx,2013-02-01 04:29:00,
2013-01-31 22:30:00,58.0,50.0,30.27,SSE,157,4.0,4.0,75,0.00,,,0.00,TxWx,2013-02-01 04:30:00,
2013-01-31 22:31:00,58.0,49.0,30.26,SSW,202,2.0,3.0,72,0.00,,,0.00,TxWx,2013-02-01 04:31:00,
2013-01-31 22:32:00,58.0,50.0,30.27,SSW,202,3.0,4.0,75,0.00,,,0.00,TxWx,2013-02-01 04:32:00,
2013-01-31 22:34:00,58.0,50.0,30.27,South,180,5.0,5.0,75,0.00,,,0.00,TxWx,2013-02-01 04:34:00,
2013-01-31 22:35:00,58.0,49.0,30.26,South,180,4.0,4.0,72,0.00,,,0.00,TxWx,2013-02-01 04:35:00,
2013-01-31 22:36:00,58.0,49.0,30.26,SE,135,3.0,3.0,72,0.00,,,0.00,TxWx,2013-02-01 04:36:00,
2013-01-31 22:37:00,58.0,49.0,30.26,SSW,202,3.0,3.0,72,0.00,,,0.00,TxWx,2013-02-01 04:37:00,
2013-01-31 22:40:00,58.0,49.0,30.26,South,180,3.0,3.0,73,0.00,,,0.00,TxWx,2013-02-01 04:40:00,
2013-01-31 22:42:00,58.0,49.0,30.26,SSW,202,3.0,3.0,73,0.00,,,0.00,TxWx,2013-02-01 04:42:00,
2013-01-31 22:43:00,58.0,49.0,30.26,South,180,3.0,3.0,73,0.00,,,0.00,TxWx,2013-02-01 04:43:00,
2013-01-31 22:46:00,58.0,49.0,30.26,South,180,3.0,3.0,73,0.00,,,0.00,TxWx,2013-02-01 04:46:00,
2013-01-31 22:48:00,58.0,49.0,30.26,SSW,202,3.0,4.0,73,0.00,,,0.00,TxWx,2013-02-01 04:48:00,
2013-01-31 22:49:00,58.0,49.0,30.26,SSW,202,3.0,4.0,73,0.00,,,0.00,TxWx,2013-02-01 04:49:00,
2013-01-31 22:53:00,58.0,50.0,30.26,South,180,3.0,3.0,74,0.00,,,0.00,TxWx,2013-02-01 04:53:00,
2013-01-31 22:54:00,58.0,50.0,30.26,South,180,3.0,3.0,74,0.00,,,0.00,TxWx,2013-02-01 04:54:00,
2013-01-31 22:55:00,58.0,50.0,30.26,South,180,3.0,3.0,74,0.00,,,0.00,TxWx,2013-02-01 04:55:00,
2013-01-31 22:58:00,58.0,50.0,30.26,SSE,157,3.0,3.0,74,0.00,,,0.00,TxWx,2013-02-01 04:58:00,
2013-01-31 22:59:00,58.0,50.0,30.26,South,180,3.0,3.0,74,0.00,,,0.00,TxWx,2013-02-01 04:59:00,
2013-01-31 23:25:00,58.0,50.0,30.27,SSW,202,3.0,3.0,75,0.00,,,0.00,TxWx,2013-02-01 05:25:00,
2013-01-31 23:28:00,58.0,50.0,30.27,SSE,157,4.0,4.0,75,0.00,,,0.00,TxWx,2013-02-01 05:28:00,
2013-01-31 23:31:00,58.0,50.0,30.27,SSE,157,3.0,4.0,75,0.00,,,0.00,TxWx,2013-02-01 05:31:00,
2013-01-31 23:35:00,58.0,50.0,30.27,South,180,2.0,3.0,75,0.00,,,0.00,TxWx,2013-02-01 05:35:00,
2013-01-31 23:36:00,58.0,50.0,30.27,SSW,202,4.0,4.0,75,0.00,,,0.00,TxWx,2013-02-01 05:36:00,
2013-01-31 23:37:00,58.0,50.0,30.27,SSW,202,3.0,3.0,75,0.00,,,0.00,TxWx,2013-02-01 05:37:00,
2013-01-31 23:41:00,58.0,50.0,30.27,South,180,4.0,4.0,75,0.00,,,0.00,TxWx,2013-02-01 05:41:00,
2013-01-31 23:42:00,58.0,50.0,30.27,South,180,3.0,3.0,75,0.00,,,0.00,TxWx,2013-02-01 05:42:00,
2013-01-31 23:45:00,58.0,50.0,30.27,South,180,4.0,4.0,75,0.00,,,0.00,TxWx,2013-02-01 05:45:00,
2013-01-31 23:46:00,58.0,50.0,30.27,SSW,202,3.0,4.0,75,0.00,,,0.00,TxWx,2013-02-01 05:46:00,
2013-01-31 23:47:00,58.0,50.0,30.27,South,180,4.0,4.0,75,0.00,,,0.00,TxWx,2013-02-01 05:47:00,
2013-01-31 23:48:00,58.0,50.0,30.27,SSE,157,4.0,4.0,76,0.00,,,0.00,TxWx,2013-02-01 05:48:00,
2013-01-31 23:50:00,58.0,50.0,30.27,South,180,4.0,4.0,76,0.00,,,0.00,TxWx,2013-02-01 05:50:00,
2013-01-31 23:52:00,58.0,50.0,30.26,South,180,5.0,5.0,76,0.00,,,0.00,TxWx,2013-02-01 05:52:00,
2013-01-31 23:53:00,58.0,50.0,30.26,South,180,4.0,4.0,76,0.00,,,0.00,TxWx,2013-02-01 05:53:00,
2013-01-31 23:54:00,58.0,50.0,30.26,SSW,202,4.0,4.0,76,0.00,,,0.00,TxWx,2013-02-01 05:54:00,
2013-01-31 23:55:00,58.0,50.0,30.26,SSW,202,4.0,5.0,76,0.00,,,0.00,TxWx,2013-02-01 05:55:00,
2013-01-31 23:58:00,58.0,50.0,30.26,SSW,202,4.0,4.0,76,0.00,,,0.00,TxWx,2013-02-01 05:58:00,
2013-01-31 23:59:00,58.0,50.0,30.26,South,180,4.0,4.0,76,0.00,,,0.00,TxWx,2013-02-01 05:59:00,